CPA812 VHHH-KBOS

Flight info

Callsign CPA812
Flight time N/A
Altitude 33000
Route DALOL V631 ENVAR M750 IMPAL Y755 CARDS DCT HIOTI DCT CBE Y121 SWING Y88 DAIGO Y889 OATIS R580 ONEIL DCT ECOMI/N0489F350 DCT NAYLD DCT MCG DCT ORT DCT 63N140W 63N130W/N0492F370 62N120W 6030N11000W 59N105W 57N100W 5230N09000W DCT ANTUR/N0495F390 DCT OXASA Q904 OTONA DCT RAKAM DCT PONCT JFUND2
Aircraft A35K/H-SDE2E3GHIJ3J4J5LM1ORWXY/LB1D1

Departure

Time 2026-05-06 03:44
Airport Hong Kong International Airport (VHHH)

Arrival

Time N/A
Airport Boston Logan International Airport (KBOS)
Time Latitude Longitude Altitude Speed Heading
2026-05-06 03:08 22.31410 113.92865 38 ft 0 kts 161°
2026-05-06 03:32 22.31433 113.92856 37 ft 4 kts 161°
2026-05-06 03:32 22.31458 113.92847 36 ft 3 kts 161°
2026-05-06 03:32 22.31477 113.92840 36 ft 4 kts 177°
2026-05-06 03:32 22.31500 113.92846 36 ft 4 kts 229°
2026-05-06 03:33 22.31511 113.92868 32 ft 4 kts 251°
2026-05-06 03:33 22.31519 113.92894 34 ft 2 kts 251°
2026-05-06 03:33 22.31519 113.92895 34 ft 0 kts 251°
2026-05-06 03:35 22.31517 113.92889 34 ft 3 kts 251°
2026-05-06 03:35 22.31502 113.92841 34 ft 10 kts 251°
2026-05-06 03:36 22.31498 113.92754 38 ft 13 kts 285°
2026-05-06 03:36 22.31531 113.92667 37 ft 13 kts 294°
2026-05-06 03:36 22.31571 113.92582 38 ft 13 kts 297°
2026-05-06 03:36 22.31610 113.92497 38 ft 13 kts 296°
2026-05-06 03:37 22.31674 113.92440 38 ft 12 kts 337°
2026-05-06 03:37 22.31735 113.92384 38 ft 11 kts 292°
2026-05-06 03:37 22.31716 113.92297 38 ft 14 kts 248°
2026-05-06 03:37 22.31678 113.92189 38 ft 17 kts 250°
2026-05-06 03:38 22.31635 113.92061 38 ft 19 kts 252°
2026-05-06 03:38 22.31596 113.91929 38 ft 18 kts 250°
2026-05-06 03:38 22.31555 113.91810 38 ft 18 kts 251°
2026-05-06 03:38 22.31513 113.91677 38 ft 18 kts 251°
2026-05-06 03:39 22.31474 113.91553 38 ft 17 kts 251°
2026-05-06 03:39 22.31435 113.91431 38 ft 17 kts 251°
2026-05-06 03:39 22.31396 113.91311 38 ft 17 kts 250°
2026-05-06 03:39 22.31356 113.91190 38 ft 17 kts 250°
2026-05-06 03:40 22.31317 113.91068 38 ft 17 kts 251°
2026-05-06 03:40 22.31277 113.90944 38 ft 17 kts 251°
2026-05-06 03:40 22.31237 113.90821 38 ft 18 kts 251°
2026-05-06 03:40 22.31197 113.90695 38 ft 18 kts 251°
2026-05-06 03:41 22.31156 113.90569 37 ft 18 kts 251°
2026-05-06 03:41 22.31115 113.90440 37 ft 18 kts 251°
2026-05-06 03:41 22.31074 113.90313 38 ft 18 kts 250°
2026-05-06 03:41 22.31032 113.90185 38 ft 18 kts 250°
2026-05-06 03:42 22.30990 113.90056 38 ft 18 kts 251°
2026-05-06 03:42 22.30962 113.89965 38 ft 13 kts 253°
2026-05-06 03:42 22.30993 113.89895 38 ft 11 kts 337°
2026-05-06 03:42 22.31076 113.89869 36 ft 13 kts 360°
2026-05-06 03:43 22.31133 113.89928 36 ft 12 kts 70°
2026-05-06 03:43 22.31157 113.90006 36 ft 12 kts 70°
2026-05-06 03:43 22.31217 113.90188 36 ft 48 kts 71°
2026-05-06 03:43 22.31382 113.90705 37 ft 97 kts 71°
2026-05-06 03:44 22.31653 113.91547 38 ft 139 kts 71°
2026-05-06 03:44 22.32015 113.92662 127 ft 167 kts 72°
2026-05-06 03:44 22.32403 113.93854 510 ft 174 kts 71°
2026-05-06 03:44 22.32826 113.95132 797 ft 188 kts 72°
2026-05-06 03:45 22.33259 113.96505 1130 ft 200 kts 73°
2026-05-06 03:45 22.33680 113.97981 1445 ft 212 kts 79°
2026-05-06 03:45 22.33891 113.99581 1796 ft 218 kts 88°
2026-05-06 03:45 22.33793 114.01232 2096 ft 226 kts 103°
2026-05-06 03:46 22.33210 114.02859 2271 ft 241 kts 122°
2026-05-06 03:46 22.32075 114.04229 2668 ft 249 kts 143°
2026-05-06 03:46 22.30612 114.05249 3202 ft 253 kts 149°
2026-05-06 03:46 22.29090 114.06220 3790 ft 253 kts 149°
2026-05-06 03:47 22.27579 114.07197 4301 ft 255 kts 149°
2026-05-06 03:47 22.26039 114.08172 4753 ft 257 kts 153°
2026-05-06 03:47 22.24333 114.08722 5146 ft 259 kts 177°
2026-05-06 03:47 22.22519 114.08748 5528 ft 262 kts 182°
2026-05-06 03:48 22.20691 114.08703 6042 ft 263 kts 182°
2026-05-06 03:48 22.18848 114.08672 6500 ft 267 kts 181°
2026-05-06 03:48 22.17386 114.08817 6757 ft 274 kts 168°
2026-05-06 03:48 22.16563 114.09138 6905 ft 279 kts 153°
2026-05-06 03:49 22.16084 114.09457 7026 ft 281 kts 144°
2026-05-06 03:49 22.14896 114.10990 7438 ft 287 kts 120°
2026-05-06 03:49 22.14281 114.12259 7747 ft 289 kts 118°
2026-05-06 03:50 22.13381 114.14227 8128 ft 295 kts 118°
2026-05-06 03:50 22.12486 114.16159 8537 ft 300 kts 118°
2026-05-06 03:50 22.12125 114.16929 8745 ft 300 kts 118°
2026-05-06 03:50 22.11658 114.17921 8972 ft 301 kts 118°
2026-05-06 03:51 22.10391 114.20602 9605 ft 305 kts 118°
2026-05-06 03:51 22.09736 114.21984 9908 ft 308 kts 118°
2026-05-06 03:51 22.08749 114.24061 10225 ft 316 kts 118°
2026-05-06 03:51 22.07589 114.26123 10394 ft 327 kts 132°
2026-05-06 03:52 22.05872 114.27759 10586 ft 335 kts 146°
2026-05-06 03:52 22.03948 114.29250 10801 ft 346 kts 146°
2026-05-06 03:52 22.01959 114.30789 10988 ft 357 kts 146°
2026-05-06 03:52 21.99919 114.32381 11188 ft 367 kts 146°
2026-05-06 03:53 21.97823 114.34025 11373 ft 377 kts 146°
2026-05-06 03:53 21.95677 114.35711 11537 ft 387 kts 146°
2026-05-06 03:53 21.93484 114.37443 11706 ft 395 kts 146°
2026-05-06 03:53 21.91239 114.39208 11863 ft 404 kts 146°
2026-05-06 03:54 21.88954 114.41003 12079 ft 409 kts 146°
2026-05-06 03:54 21.86683 114.42878 12347 ft 415 kts 140°
2026-05-06 03:54 21.84824 114.45264 12625 ft 421 kts 121°
2026-05-06 03:54 21.83707 114.48185 12918 ft 424 kts 107°
2026-05-06 03:55 21.82937 114.51216 13219 ft 427 kts 105°
2026-05-06 03:55 21.82161 114.54354 13525 ft 430 kts 105°
2026-05-06 03:55 21.81377 114.57469 13807 ft 432 kts 105°
2026-05-06 03:55 21.80591 114.60551 14072 ft 434 kts 105°
2026-05-06 03:56 21.79787 114.63684 14342 ft 435 kts 106°
2026-05-06 03:56 21.78977 114.66823 14643 ft 436 kts 106°
2026-05-06 03:56 21.78164 114.69967 14929 ft 437 kts 106°
2026-05-06 03:56 21.77344 114.73131 15191 ft 439 kts 106°
2026-05-06 03:57 21.76522 114.76298 15459 ft 440 kts 106°
2026-05-06 03:57 21.75697 114.79476 15700 ft 442 kts 106°
2026-05-06 03:57 21.74874 114.82668 15951 ft 443 kts 105°
2026-05-06 03:57 21.74344 114.85937 16182 ft 445 kts 95°
2026-05-06 03:58 21.74167 114.89267 16427 ft 447 kts 91°
2026-05-06 03:58 21.74158 114.92606 16687 ft 448 kts 89°
2026-05-06 03:58 21.74217 114.95962 16916 ft 450 kts 88°
2026-05-06 03:58 21.74285 114.99323 17211 ft 450 kts 88°
2026-05-06 03:59 21.74338 115.02709 17386 ft 454 kts 89°
2026-05-06 03:59 21.74369 115.06110 17573 ft 456 kts 89°
2026-05-06 03:59 21.74382 115.09532 17836 ft 457 kts 89°
2026-05-06 03:59 21.74383 115.12960 18052 ft 459 kts 90°
2026-05-06 04:00 21.74378 115.16396 18289 ft 460 kts 90°
2026-05-06 04:00 21.74370 115.19844 18466 ft 462 kts 90°
2026-05-06 04:00 21.74364 115.23307 18671 ft 463 kts 90°
2026-05-06 04:00 21.74358 115.26775 18868 ft 464 kts 90°
2026-05-06 04:01 21.74350 115.30256 19060 ft 466 kts 90°
2026-05-06 04:01 21.74341 115.33743 19278 ft 467 kts 90°
2026-05-06 04:01 21.74331 115.37235 19487 ft 467 kts 90°
2026-05-06 04:01 21.74321 115.40734 19702 ft 468 kts 90°
2026-05-06 04:02 21.74310 115.44234 19880 ft 470 kts 90°
2026-05-06 04:02 21.74299 115.47752 20068 ft 471 kts 90°
2026-05-06 04:02 21.74287 115.51277 20280 ft 471 kts 90°
2026-05-06 04:02 21.74275 115.54804 20459 ft 473 kts 90°
2026-05-06 04:03 21.74262 115.58347 20701 ft 473 kts 90°
2026-05-06 04:03 21.74247 115.61849 20880 ft 475 kts 90°
2026-05-06 04:03 21.74232 115.65454 21100 ft 476 kts 90°
2026-05-06 04:03 21.74219 115.69009 21363 ft 476 kts 90°
2026-05-06 04:04 21.74206 115.72530 21521 ft 478 kts 90°
2026-05-06 04:04 21.74192 115.76110 21774 ft 478 kts 90°
2026-05-06 04:04 21.74176 115.79697 21909 ft 481 kts 90°
2026-05-06 04:04 21.74159 115.83293 22180 ft 481 kts 90°
2026-05-06 04:05 21.74141 115.86894 22381 ft 483 kts 90°
2026-05-06 04:05 21.74123 115.90508 22563 ft 485 kts 90°
2026-05-06 04:05 21.74103 115.94134 22851 ft 484 kts 90°
2026-05-06 04:05 21.74082 115.97770 23020 ft 486 kts 90°
2026-05-06 04:06 21.74061 116.01390 23335 ft 486 kts 90°
2026-05-06 04:06 21.74039 116.05040 23444 ft 490 kts 91°
2026-05-06 04:06 21.74016 116.08713 23688 ft 489 kts 91°
2026-05-06 04:06 21.73992 116.12372 23855 ft 491 kts 91°
2026-05-06 04:07 21.73968 116.16064 23980 ft 494 kts 90°
2026-05-06 04:07 21.73942 116.19747 24222 ft 493 kts 90°
2026-05-06 04:07 21.73916 116.23448 24335 ft 496 kts 91°
2026-05-06 04:07 21.73888 116.27160 24569 ft 496 kts 90°
2026-05-06 04:08 21.73860 116.30883 24670 ft 500 kts 90°
2026-05-06 04:08 21.73831 116.34618 24922 ft 499 kts 90°
2026-05-06 04:08 21.73800 116.38359 25110 ft 501 kts 90°
2026-05-06 04:08 21.73770 116.42117 25279 ft 503 kts 90°
2026-05-06 04:09 21.73738 116.45876 25531 ft 504 kts 90°
2026-05-06 04:09 21.73705 116.49655 25687 ft 507 kts 90°
2026-05-06 04:09 21.73671 116.53448 25951 ft 507 kts 90°
2026-05-06 04:09 21.73636 116.57251 26096 ft 510 kts 90°
2026-05-06 04:10 21.73599 116.61063 26364 ft 510 kts 90°
2026-05-06 04:10 21.73563 116.64884 26549 ft 513 kts 90°
2026-05-06 04:10 21.73525 116.68730 26795 ft 514 kts 90°
2026-05-06 04:10 21.73487 116.72580 27016 ft 516 kts 90°
2026-05-06 04:11 21.73656 116.76438 27209 ft 518 kts 83°
2026-05-06 04:11 21.74299 116.80244 27424 ft 519 kts 74°
2026-05-06 04:11 21.75387 116.83952 27537 ft 521 kts 70°
2026-05-06 04:11 21.76634 116.87611 27786 ft 522 kts 68°
2026-05-06 04:12 21.77954 116.91259 28001 ft 524 kts 67°
2026-05-06 04:12 21.79302 116.94905 28205 ft 525 kts 67°
2026-05-06 04:12 21.80640 116.98514 28404 ft 527 kts 67°
2026-05-06 04:12 21.81992 117.02184 28583 ft 529 kts 67°
2026-05-06 04:13 21.83338 117.05869 28816 ft 530 kts 67°
2026-05-06 04:13 21.84676 117.09557 29087 ft 529 kts 67°
2026-05-06 04:13 21.86008 117.13246 29353 ft 529 kts 67°
2026-05-06 04:13 21.87339 117.16940 29612 ft 529 kts 67°
2026-05-06 04:14 21.88665 117.20629 29820 ft 529 kts 67°
2026-05-06 04:14 21.89995 117.24331 30047 ft 529 kts 67°
2026-05-06 04:14 21.91322 117.28025 30263 ft 529 kts 67°
2026-05-06 04:14 21.92650 117.31722 30449 ft 529 kts 67°
2026-05-06 04:15 21.93974 117.35413 30666 ft 529 kts 66°
2026-05-06 04:15 21.95305 117.39123 30752 ft 532 kts 66°
2026-05-06 04:15 21.96635 117.42835 30941 ft 531 kts 66°
2026-05-06 04:15 21.97964 117.46547 31154 ft 530 kts 66°
2026-05-06 04:16 21.99461 117.50169 31324 ft 528 kts 59°
2026-05-06 04:16 22.01260 117.53603 31497 ft 526 kts 57°
2026-05-06 04:16 22.03131 117.56993 31681 ft 526 kts 56°
2026-05-06 04:16 22.05034 117.60358 31853 ft 525 kts 55°
2026-05-06 04:17 22.06947 117.63705 32022 ft 525 kts 55°
2026-05-06 04:17 22.08866 117.67056 32194 ft 525 kts 55°
2026-05-06 04:17 22.10779 117.70406 32358 ft 525 kts 55°
2026-05-06 04:17 22.12689 117.73760 32526 ft 525 kts 55°
2026-05-06 04:18 22.14592 117.77112 32678 ft 525 kts 55°
2026-05-06 04:18 22.16494 117.80470 32834 ft 525 kts 55°
2026-05-06 04:18 22.18397 117.83835 32955 ft 526 kts 55°
2026-05-06 04:18 22.20304 117.87206 32981 ft 528 kts 55°
2026-05-06 04:19 22.24145 117.94007 32979 ft 531 kts 55°
2026-05-06 04:19 22.27984 118.00819 32985 ft 531 kts 55°
2026-05-06 04:20 22.28331 118.01435 32986 ft 531 kts 55°
2026-05-06 04:21 22.31983 118.07759 32988 ft 530 kts 53°
2026-05-06 04:21 22.35928 118.14461 32983 ft 532 kts 53°
2026-05-06 04:22 22.39906 118.21250 32986 ft 531 kts 53°
2026-05-06 04:23 22.45710 118.31424 32983 ft 530 kts 54°
2026-05-06 04:23 22.49544 118.38235 32977 ft 530 kts 54°
2026-05-06 04:24 22.53393 118.45058 32980 ft 531 kts 54°
2026-05-06 04:24 22.57238 118.51872 32978 ft 531 kts 54°
2026-05-06 04:25 22.61098 118.58677 32984 ft 530 kts 54°
2026-05-06 04:25 22.64980 118.65469 32984 ft 530 kts 54°
2026-05-06 04:26 22.68852 118.72261 32977 ft 530 kts 54°
2026-05-06 04:26 22.72719 118.79069 32978 ft 530 kts 54°
2026-05-06 04:27 22.74890 118.82896 32984 ft 530 kts 54°
2026-05-06 04:27 22.78398 118.89087 32981 ft 530 kts 54°
2026-05-06 04:28 22.82247 118.95890 32979 ft 528 kts 55°
2026-05-06 04:28 22.86075 119.02664 32979 ft 526 kts 55°
2026-05-06 04:29 22.89899 119.09437 32978 ft 526 kts 55°
2026-05-06 04:29 22.93683 119.16147 32979 ft 526 kts 55°
2026-05-06 04:30 22.97502 119.22929 32980 ft 526 kts 55°
2026-05-06 04:30 23.01289 119.29666 32975 ft 525 kts 55°
2026-05-06 04:31 23.05079 119.36418 32969 ft 523 kts 55°
2026-05-06 04:31 23.08866 119.43170 32982 ft 523 kts 55°
2026-05-06 04:32 23.12646 119.49918 32963 ft 523 kts 55°
2026-05-06 04:32 23.16423 119.56671 32981 ft 523 kts 54°
2026-05-06 04:33 23.20194 119.63430 32971 ft 523 kts 55°
2026-05-06 04:33 23.23964 119.70180 32973 ft 521 kts 54°
2026-05-06 04:34 23.27727 119.76920 32972 ft 521 kts 54°
2026-05-06 04:34 23.31484 119.83662 32972 ft 521 kts 54°
2026-05-06 04:35 23.35275 119.90377 32966 ft 519 kts 51°
2026-05-06 04:35 23.39987 119.96191 32969 ft 511 kts 40°
2026-05-06 04:36 23.45112 120.01544 32971 ft 509 kts 38°
2026-05-06 04:36 23.50282 120.06819 32971 ft 509 kts 38°
2026-05-06 04:37 23.55444 120.12106 32967 ft 509 kts 38°
2026-05-06 04:37 23.60589 120.17409 32974 ft 509 kts 38°
2026-05-06 04:38 23.65691 120.22684 32986 ft 509 kts 38°
2026-05-06 04:38 23.70817 120.27992 32974 ft 507 kts 38°
2026-05-06 04:39 23.75931 120.33289 32979 ft 507 kts 38°
2026-05-06 04:39 23.81050 120.38597 32980 ft 507 kts 38°
2026-05-06 04:40 23.85298 120.43008 32981 ft 507 kts 38°
2026-05-06 04:40 23.90399 120.48312 32983 ft 505 kts 38°
2026-05-06 04:41 23.95463 120.53621 32993 ft 505 kts 38°
2026-05-06 04:41 24.00515 120.58958 33001 ft 505 kts 38°
2026-05-06 04:42 24.05563 120.64294 32997 ft 505 kts 38°
2026-05-06 04:42 24.10614 120.69636 33012 ft 505 kts 38°
2026-05-06 04:43 24.15644 120.74963 33005 ft 502 kts 38°
2026-05-06 04:43 24.20660 120.80277 33004 ft 502 kts 38°
2026-05-06 04:44 24.25678 120.85597 33005 ft 502 kts 38°
2026-05-06 04:44 24.30688 120.90917 33011 ft 502 kts 38°
2026-05-06 04:45 24.35693 120.96239 33038 ft 501 kts 38°
2026-05-06 04:45 24.40677 121.01584 33035 ft 503 kts 41°
2026-05-06 04:46 24.45216 121.07491 33031 ft 507 kts 45°
2026-05-06 04:46 24.49612 121.13538 33043 ft 507 kts 46°
2026-05-06 04:47 24.53990 121.19608 33040 ft 507 kts 45°
2026-05-06 04:47 24.58342 121.25626 33041 ft 507 kts 45°
2026-05-06 04:48 24.62733 121.31698 33041 ft 506 kts 46°
2026-05-06 04:48 24.67112 121.37778 33043 ft 507 kts 45°
2026-05-06 04:49 24.71496 121.43843 33031 ft 506 kts 45°
2026-05-06 04:49 24.75864 121.49913 33021 ft 505 kts 46°
2026-05-06 04:50 24.80235 121.55989 33005 ft 507 kts 45°
2026-05-06 04:50 24.84597 121.62077 33005 ft 507 kts 46°
2026-05-06 04:51 24.88957 121.68170 32990 ft 506 kts 46°
2026-05-06 04:51 24.93408 121.74153 33011 ft 504 kts 43°
2026-05-06 04:52 24.98036 121.79917 32995 ft 501 kts 42°
2026-05-06 04:52 25.02652 121.85689 32993 ft 501 kts 43°
2026-05-06 04:53 25.07215 121.91480 32999 ft 501 kts 43°
2026-05-06 04:53 25.11772 121.97302 32998 ft 501 kts 43°
2026-05-06 04:54 25.16313 122.03137 32997 ft 499 kts 43°
2026-05-06 04:54 25.20797 122.08965 33003 ft 497 kts 43°
2026-05-06 04:55 25.25269 122.14784 32999 ft 496 kts 43°
2026-05-06 04:55 25.29736 122.20592 32998 ft 496 kts 43°
2026-05-06 04:56 25.34209 122.26411 33019 ft 496 kts 43°
2026-05-06 04:56 25.38660 122.32212 32999 ft 493 kts 43°
2026-05-06 04:57 25.43066 122.37960 33000 ft 493 kts 43°
2026-05-06 04:57 25.47495 122.43744 33002 ft 493 kts 43°
2026-05-06 04:58 25.51923 122.49535 33005 ft 493 kts 43°
2026-05-06 04:58 25.56361 122.55308 33005 ft 491 kts 43°
2026-05-06 04:59 25.60789 122.61055 33008 ft 490 kts 43°
2026-05-06 04:59 25.65215 122.66808 32996 ft 492 kts 43°
2026-05-06 05:00 25.69649 122.72586 33013 ft 492 kts 43°
2026-05-06 05:00 25.74081 122.78371 33022 ft 492 kts 43°
2026-05-06 05:01 25.78488 122.84135 33007 ft 489 kts 43°
2026-05-06 05:01 25.82882 122.89886 33029 ft 488 kts 43°
2026-05-06 05:02 25.87286 122.95653 33011 ft 491 kts 43°
2026-05-06 05:02 25.91697 123.01442 33012 ft 491 kts 43°
2026-05-06 05:03 25.96100 123.07236 33005 ft 489 kts 43°
2026-05-06 05:03 26.00482 123.13004 33011 ft 488 kts 43°
2026-05-06 05:04 26.04865 123.18774 33015 ft 490 kts 44°
2026-05-06 05:04 26.09277 123.24590 33012 ft 493 kts 44°
2026-05-06 05:05 26.13695 123.30430 33016 ft 493 kts 44°
2026-05-06 05:05 26.18094 123.36255 33012 ft 491 kts 44°
2026-05-06 05:06 26.22483 123.42070 33009 ft 491 kts 44°
2026-05-06 05:06 26.26870 123.47888 33004 ft 490 kts 44°
2026-05-06 05:07 26.31256 123.53713 33010 ft 491 kts 44°
2026-05-06 05:07 26.35628 123.59528 33012 ft 488 kts 44°
2026-05-06 05:08 26.39981 123.65326 33012 ft 487 kts 44°
2026-05-06 05:08 26.44333 123.71123 33016 ft 489 kts 44°
2026-05-06 05:09 26.48735 123.76993 33015 ft 495 kts 45°
2026-05-06 05:09 26.53148 123.82896 33015 ft 494 kts 45°
2026-05-06 05:10 26.57516 123.88750 33015 ft 493 kts 45°
2026-05-06 05:10 26.61906 123.94636 33012 ft 493 kts 45°
2026-05-06 05:11 26.66312 124.00545 33016 ft 498 kts 46°
2026-05-06 05:11 26.70784 124.06529 33015 ft 503 kts 46°
2026-05-06 05:12 26.75270 124.12531 33012 ft 503 kts 46°
2026-05-06 05:12 26.79747 124.18533 33012 ft 503 kts 46°
2026-05-06 05:13 26.84233 124.24551 33013 ft 505 kts 47°
2026-05-06 05:13 26.88765 124.30641 33020 ft 513 kts 47°
2026-05-06 05:14 26.93356 124.36822 33014 ft 517 kts 47°
2026-05-06 05:14 26.97939 124.43006 33015 ft 516 kts 47°
2026-05-06 05:15 27.02522 124.49197 33009 ft 516 kts 49°
2026-05-06 05:15 27.07149 124.55440 33019 ft 524 kts 50°
2026-05-06 05:16 27.11834 124.61774 33019 ft 528 kts 50°
2026-05-06 05:16 27.16519 124.68121 33014 ft 527 kts 50°
2026-05-06 05:17 27.21166 124.74424 33007 ft 527 kts 51°
2026-05-06 05:17 27.25871 124.80815 33017 ft 535 kts 51°
2026-05-06 05:18 27.30634 124.87300 33015 ft 539 kts 51°
2026-05-06 05:18 27.35401 124.93798 33017 ft 538 kts 51°
2026-05-06 05:19 27.40164 125.00297 33007 ft 538 kts 52°
2026-05-06 05:19 27.44979 125.06817 33016 ft 545 kts 52°
2026-05-06 05:20 27.49855 125.13380 33016 ft 546 kts 52°
2026-05-06 05:20 27.54723 125.19947 33017 ft 546 kts 52°
2026-05-06 05:21 27.59584 125.26524 33015 ft 546 kts 52°
2026-05-06 05:21 27.64505 125.33200 33019 ft 553 kts 52°
2026-05-06 05:22 27.69398 125.39846 33015 ft 554 kts 52°
2026-05-06 05:22 27.74313 125.46531 33015 ft 553 kts 52°
2026-05-06 05:23 27.79230 125.53232 33016 ft 555 kts 52°
2026-05-06 05:23 27.86625 125.63327 33014 ft 556 kts 52°
2026-05-06 05:24 27.91557 125.70071 33016 ft 556 kts 52°
2026-05-06 05:24 27.96482 125.76816 33008 ft 557 kts 52°
2026-05-06 05:25 28.01403 125.83568 33018 ft 555 kts 52°
2026-05-06 05:25 28.06308 125.90310 33015 ft 555 kts 52°
2026-05-06 05:26 28.11213 125.97064 33027 ft 555 kts 52°
2026-05-06 05:26 28.15294 126.02690 33021 ft 557 kts 52°
2026-05-06 05:27 28.20217 126.09487 33016 ft 558 kts 52°
2026-05-06 05:27 28.25144 126.16299 33018 ft 558 kts 52°
2026-05-06 05:28 28.30062 126.23110 33027 ft 559 kts 52°
2026-05-06 05:28 28.34999 126.29958 33019 ft 561 kts 53°
2026-05-06 05:29 28.39935 126.36817 33018 ft 560 kts 53°
2026-05-06 05:29 28.44863 126.43675 33020 ft 560 kts 53°
2026-05-06 05:30 28.49787 126.50539 33012 ft 560 kts 52°
2026-05-06 05:30 28.54701 126.57402 33021 ft 560 kts 52°
2026-05-06 05:31 28.59614 126.64272 33018 ft 559 kts 53°
2026-05-06 05:31 28.64525 126.71149 33022 ft 561 kts 53°
2026-05-06 05:32 28.69454 126.78069 33017 ft 564 kts 52°
2026-05-06 05:32 28.74398 126.85019 33021 ft 565 kts 52°
2026-05-06 05:33 28.79343 126.91977 33022 ft 565 kts 53°
2026-05-06 05:33 28.84294 126.98958 33015 ft 566 kts 53°
2026-05-06 05:34 28.89242 127.05949 33018 ft 566 kts 53°
2026-05-06 05:34 28.94181 127.12937 33030 ft 566 kts 53°
2026-05-06 05:35 28.99133 127.19957 33018 ft 569 kts 53°
2026-05-06 05:35 29.04062 127.26953 33018 ft 569 kts 53°
2026-05-06 05:36 29.09015 127.33997 33018 ft 568 kts 53°
2026-05-06 05:36 29.13978 127.41067 33021 ft 571 kts 52°
2026-05-06 05:37 29.18948 127.48160 33009 ft 572 kts 53°
2026-05-06 05:37 29.23913 127.55255 33023 ft 569 kts 53°
2026-05-06 05:38 29.28863 127.62344 33009 ft 572 kts 52°
2026-05-06 05:38 29.33847 127.69496 33032 ft 575 kts 52°
2026-05-06 05:39 29.38829 127.76653 33023 ft 572 kts 53°
2026-05-06 05:39 29.43783 127.83784 33025 ft 573 kts 53°
2026-05-06 05:40 29.48757 127.90957 33025 ft 575 kts 53°
2026-05-06 05:40 29.53740 127.98157 33026 ft 575 kts 53°
2026-05-06 05:41 29.58698 128.05325 33029 ft 574 kts 53°
2026-05-06 05:41 29.63682 128.12538 33028 ft 577 kts 53°
2026-05-06 05:42 29.68666 128.19767 33016 ft 577 kts 53°
2026-05-06 05:42 29.73638 128.26990 33030 ft 575 kts 53°
2026-05-06 05:43 29.78599 128.34213 33032 ft 576 kts 53°
2026-05-06 05:43 29.83564 128.41453 33031 ft 576 kts 53°
2026-05-06 05:44 29.88531 128.48710 33029 ft 577 kts 53°
2026-05-06 05:44 29.93520 128.56013 33034 ft 582 kts 53°
2026-05-06 05:45 29.98527 128.63355 33043 ft 582 kts 53°
2026-05-06 05:45 30.03514 128.70678 33034 ft 579 kts 53°
2026-05-06 05:46 30.08441 128.77928 33035 ft 577 kts 53°
2026-05-06 05:46 30.13385 128.85217 33034 ft 577 kts 53°
2026-05-06 05:47 30.18327 128.92517 33037 ft 576 kts 53°
2026-05-06 05:47 30.23262 128.99818 33040 ft 576 kts 53°
2026-05-06 05:48 30.28188 129.07133 33038 ft 576 kts 53°
2026-05-06 05:48 30.33116 129.14445 33044 ft 577 kts 53°
2026-05-06 05:49 30.38051 129.21783 33030 ft 577 kts 53°
2026-05-06 05:49 30.42981 129.29129 33050 ft 577 kts 53°
2026-05-06 05:50 30.47909 129.36488 33024 ft 579 kts 53°
2026-05-06 05:50 30.52832 129.43854 33049 ft 576 kts 53°
2026-05-06 05:51 30.57727 129.51192 33030 ft 575 kts 54°
2026-05-06 05:51 30.62632 129.58559 33038 ft 579 kts 54°
2026-05-06 05:52 30.67554 129.65965 33058 ft 578 kts 54°
2026-05-06 05:52 30.72455 129.73352 33051 ft 577 kts 54°
2026-05-06 05:53 30.77352 129.80749 33033 ft 578 kts 54°
2026-05-06 05:53 30.82250 129.88158 33060 ft 577 kts 54°
2026-05-06 05:54 30.86771 129.95837 33048 ft 574 kts 60°
2026-05-06 05:54 30.91017 130.03745 33042 ft 577 kts 61°
2026-05-06 05:55 30.95214 130.11680 33053 ft 575 kts 61°
2026-05-06 05:55 30.99402 130.19611 33054 ft 574 kts 61°
2026-05-06 05:56 31.03597 130.27553 33058 ft 576 kts 61°
2026-05-06 05:56 31.07784 130.35483 33059 ft 573 kts 61°
2026-05-06 05:57 31.11956 130.43400 33060 ft 572 kts 61°
2026-05-06 05:57 31.16124 130.51331 33058 ft 575 kts 62°
2026-05-06 05:58 31.20299 130.59288 33065 ft 573 kts 62°
2026-05-06 05:58 31.24454 130.67224 33067 ft 572 kts 62°
2026-05-06 05:59 31.28609 130.75182 33072 ft 576 kts 62°
2026-05-06 05:59 31.32754 130.83134 33068 ft 576 kts 62°
2026-05-06 06:00 31.36946 130.91195 33069 ft 576 kts 62°
2026-05-06 06:00 31.41100 130.99192 33096 ft 574 kts 62°
2026-05-06 06:01 31.45213 131.07125 33080 ft 573 kts 62°
2026-05-06 06:01 31.49343 131.15113 33109 ft 573 kts 62°
2026-05-06 06:02 31.53476 131.23125 33108 ft 577 kts 62°
2026-05-06 06:02 31.57619 131.31171 33086 ft 577 kts 62°
2026-05-06 06:03 31.61762 131.39230 33099 ft 577 kts 62°
2026-05-06 06:03 31.65893 131.47301 33104 ft 578 kts 62°
2026-05-06 06:04 31.70025 131.55386 33103 ft 578 kts 62°
2026-05-06 06:04 31.74154 131.63481 33097 ft 578 kts 63°
2026-05-06 06:05 31.78289 131.71611 33097 ft 580 kts 63°
2026-05-06 06:05 31.82421 131.79746 33091 ft 580 kts 63°
2026-05-06 06:06 31.86551 131.87897 33098 ft 581 kts 63°
2026-05-06 06:06 31.90691 131.96087 33094 ft 583 kts 63°
2026-05-06 06:07 31.94833 132.04294 33109 ft 582 kts 63°
2026-05-06 06:07 31.98966 132.12504 33097 ft 584 kts 63°
2026-05-06 06:08 32.03077 132.20686 33082 ft 584 kts 63°
2026-05-06 06:08 32.07205 132.28918 33113 ft 583 kts 63°
2026-05-06 06:09 32.11330 132.37168 33093 ft 586 kts 63°
2026-05-06 06:09 32.15329 132.45529 33094 ft 583 kts 67°
2026-05-06 06:10 32.18875 132.54092 33107 ft 581 kts 69°
2026-05-06 06:10 32.22388 132.62729 33090 ft 584 kts 68°
2026-05-06 06:11 32.25978 132.71349 33101 ft 584 kts 68°
2026-05-06 06:11 32.29601 132.79942 33106 ft 586 kts 68°
2026-05-06 06:12 32.33236 132.88572 33095 ft 587 kts 68°
2026-05-06 06:12 32.36866 132.97220 33101 ft 587 kts 68°
2026-05-06 06:13 32.39877 133.04420 33094 ft 589 kts 68°
2026-05-06 06:13 32.43510 133.13128 33100 ft 590 kts 68°
2026-05-06 06:14 32.47135 133.21833 33100 ft 590 kts 68°
2026-05-06 06:14 32.50751 133.30542 33101 ft 589 kts 68°
2026-05-06 06:15 32.54362 133.39255 33104 ft 589 kts 68°
2026-05-06 06:15 32.57959 133.47960 33119 ft 588 kts 68°
2026-05-06 06:16 32.61561 133.56697 33108 ft 590 kts 68°
2026-05-06 06:16 32.65168 133.65462 33099 ft 590 kts 67°
2026-05-06 06:17 32.68760 133.74214 33107 ft 590 kts 67°
2026-05-06 06:17 32.72347 133.82982 33107 ft 591 kts 67°
2026-05-06 06:18 32.75930 133.91759 33108 ft 589 kts 68°
2026-05-06 06:18 32.79505 134.00541 33110 ft 592 kts 67°
2026-05-06 06:19 32.82732 134.09496 33110 ft 585 kts 76°
2026-05-06 06:19 32.85161 134.18709 33126 ft 583 kts 78°
2026-05-06 06:20 32.87452 134.27985 33119 ft 585 kts 78°
2026-05-06 06:20 32.89728 134.37262 33118 ft 584 kts 78°
2026-05-06 06:21 32.92016 134.46541 33127 ft 583 kts 78°
2026-05-06 06:21 32.94300 134.55794 33121 ft 583 kts 78°
2026-05-06 06:22 32.96579 134.65054 33109 ft 581 kts 78°
2026-05-06 06:22 32.98836 134.74252 33138 ft 578 kts 78°
2026-05-06 06:23 33.01089 134.83498 33124 ft 584 kts 78°
2026-05-06 06:23 33.03351 134.92802 33126 ft 585 kts 78°
2026-05-06 06:24 33.05609 135.02106 33131 ft 585 kts 78°
2026-05-06 06:24 33.07862 135.11408 33128 ft 583 kts 78°
2026-05-06 06:25 33.09314 135.15929 33126 ft 587 kts 66°
2026-05-06 06:25 33.11409 135.20125 33131 ft 590 kts 54°
2026-05-06 06:25 33.17279 135.26913 33149 ft 590 kts 37°
2026-05-06 06:26 33.20522 135.29922 33133 ft 592 kts 35°
2026-05-06 06:26 33.27139 135.35799 33135 ft 593 kts 34°
2026-05-06 06:27 33.33770 135.41691 33137 ft 594 kts 34°
2026-05-06 06:27 33.40362 135.47647 33136 ft 594 kts 35°
2026-05-06 06:28 33.46946 135.53638 33134 ft 594 kts 35°
2026-05-06 06:28 33.53534 135.59641 33133 ft 595 kts 34°
2026-05-06 06:29 33.60081 135.65622 33152 ft 596 kts 34°
2026-05-06 06:29 33.66676 135.71657 33141 ft 597 kts 34°
2026-05-06 06:30 33.73296 135.77680 33149 ft 596 kts 34°
2026-05-06 06:30 33.79937 135.83665 33168 ft 597 kts 34°
2026-05-06 06:31 33.86576 135.89668 33161 ft 597 kts 33°
2026-05-06 06:31 33.93231 135.95687 33163 ft 600 kts 33°
2026-05-06 06:32 33.99881 136.01723 33169 ft 597 kts 33°
2026-05-06 06:32 34.06506 136.07752 33167 ft 596 kts 33°
2026-05-06 06:33 34.13127 136.13792 33164 ft 597 kts 33°
2026-05-06 06:33 34.19750 136.19859 33163 ft 598 kts 33°
2026-05-06 06:34 34.26394 136.25935 33169 ft 600 kts 33°
2026-05-06 06:34 34.33059 136.32005 33169 ft 598 kts 33°
2026-05-06 06:35 34.39697 136.38048 33172 ft 597 kts 33°
2026-05-06 06:35 34.46328 136.44111 33170 ft 597 kts 32°
2026-05-06 06:36 34.52979 136.50166 33164 ft 600 kts 32°
2026-05-06 06:36 34.59668 136.56251 33162 ft 600 kts 32°
2026-05-06 06:37 34.66335 136.62324 33159 ft 598 kts 32°
2026-05-06 06:37 34.72973 136.68416 33157 ft 598 kts 33°
2026-05-06 06:38 34.79603 136.74540 33159 ft 599 kts 32°
2026-05-06 06:38 34.86257 136.80689 33157 ft 601 kts 32°
2026-05-06 06:39 34.92976 136.86600 33155 ft 598 kts 29°
2026-05-06 06:39 34.99850 136.92325 33157 ft 598 kts 28°
2026-05-06 06:40 35.06711 136.98083 33191 ft 599 kts 29°
2026-05-06 06:40 35.13534 137.03906 33155 ft 599 kts 29°
2026-05-06 06:41 35.20352 137.09756 33145 ft 599 kts 29°
2026-05-06 06:41 35.27169 137.15617 33148 ft 599 kts 29°
2026-05-06 06:42 35.33981 137.21494 33144 ft 600 kts 30°
2026-05-06 06:42 35.37165 137.24845 33171 ft 608 kts 43°
2026-05-06 06:42 35.39831 137.28873 33154 ft 612 kts 56°
2026-05-06 06:43 35.43816 137.38116 33154 ft 614 kts 65°
2026-05-06 06:43 35.47381 137.47650 33162 ft 614 kts 66°
2026-05-06 06:44 35.50906 137.57193 33161 ft 614 kts 65°
2026-05-06 06:44 35.54492 137.66694 33163 ft 614 kts 65°
2026-05-06 06:45 35.58099 137.76195 33157 ft 614 kts 65°
2026-05-06 06:45 35.61676 137.85724 33156 ft 613 kts 66°
2026-05-06 06:46 35.65115 137.95306 33162 ft 613 kts 66°
2026-05-06 06:46 35.68534 138.04897 33175 ft 612 kts 65°
2026-05-06 06:47 35.72183 138.14347 33157 ft 612 kts 63°
2026-05-06 06:47 35.75893 138.23771 33181 ft 612 kts 64°
2026-05-06 06:48 35.79556 138.33200 33192 ft 610 kts 64°
2026-05-06 06:48 35.83151 138.42587 33171 ft 610 kts 64°
2026-05-06 06:49 35.86750 138.52060 33161 ft 610 kts 64°
2026-05-06 06:49 35.90351 138.61532 33162 ft 610 kts 64°
2026-05-06 06:50 35.93950 138.71018 33178 ft 610 kts 65°
2026-05-06 06:50 35.97515 138.80504 33185 ft 608 kts 64°
2026-05-06 06:51 36.01079 138.89956 33181 ft 606 kts 64°
2026-05-06 06:51 36.04633 138.99406 33181 ft 607 kts 65°
2026-05-06 06:52 36.08174 139.08879 33183 ft 607 kts 65°
2026-05-06 06:52 36.11697 139.18342 33182 ft 606 kts 65°
2026-05-06 06:53 36.15220 139.27811 33177 ft 606 kts 64°
2026-05-06 06:53 36.17302 139.32332 33184 ft 603 kts 53°
2026-05-06 06:53 36.19662 139.36615 33179 ft 603 kts 52°
2026-05-06 06:54 36.24551 139.45046 33182 ft 603 kts 51°
2026-05-06 06:54 36.29511 139.53422 33184 ft 602 kts 50°
2026-05-06 06:55 36.34449 139.61808 33170 ft 603 kts 51°
2026-05-06 06:55 36.39369 139.70233 33166 ft 603 kts 51°
2026-05-06 06:56 36.44256 139.78604 33167 ft 602 kts 51°
2026-05-06 06:56 36.49195 139.87019 33159 ft 603 kts 51°
2026-05-06 06:57 36.53937 139.95642 33154 ft 605 kts 54°
2026-05-06 06:57 36.58484 140.04442 33145 ft 604 kts 55°
2026-05-06 06:58 36.63040 140.13216 33140 ft 604 kts 54°
2026-05-06 06:58 36.67636 140.21974 33137 ft 603 kts 54°
2026-05-06 06:59 36.72231 140.30707 33136 ft 602 kts 54°
2026-05-06 06:59 36.76209 140.39887 33141 ft 604 kts 64°
2026-05-06 07:00 36.79684 140.49452 33146 ft 605 kts 65°
2026-05-06 07:00 36.82519 140.57520 33147 ft 606 kts 66°
2026-05-06 07:01 36.85889 140.67158 33145 ft 606 kts 66°
2026-05-06 07:01 36.89277 140.76798 33149 ft 607 kts 66°
2026-05-06 07:02 36.92664 140.86456 33145 ft 607 kts 66°
2026-05-06 07:02 36.96044 140.96121 33146 ft 607 kts 66°
2026-05-06 07:03 36.99420 141.05793 33149 ft 607 kts 66°
2026-05-06 07:03 37.02786 141.15484 33151 ft 607 kts 65°
2026-05-06 07:04 37.06116 141.25102 33151 ft 606 kts 65°
2026-05-06 07:04 37.09461 141.34790 33166 ft 606 kts 66°
2026-05-06 07:05 37.12798 141.44486 33152 ft 607 kts 66°
2026-05-06 07:05 37.16135 141.54210 33157 ft 607 kts 66°
2026-05-06 07:06 37.19461 141.63940 33156 ft 607 kts 66°
2026-05-06 07:06 37.22779 141.73677 33159 ft 607 kts 66°
2026-05-06 07:07 37.26092 141.83429 33165 ft 607 kts 66°
2026-05-06 07:07 37.29392 141.93177 33166 ft 607 kts 66°
2026-05-06 07:08 37.32685 142.02937 33162 ft 607 kts 66°
2026-05-06 07:08 37.35970 142.12705 33166 ft 606 kts 66°
2026-05-06 07:09 37.39243 142.22470 33165 ft 606 kts 66°
2026-05-06 07:09 37.42508 142.32241 33172 ft 606 kts 66°
2026-05-06 07:10 37.45766 142.42027 33152 ft 607 kts 66°
2026-05-06 07:10 37.49018 142.51821 33162 ft 605 kts 66°
2026-05-06 07:11 37.52250 142.61586 33167 ft 604 kts 66°
2026-05-06 07:11 37.55471 142.71365 33167 ft 604 kts 66°
2026-05-06 07:12 37.58658 142.81163 33171 ft 605 kts 67°
2026-05-06 07:12 37.61793 142.91008 33176 ft 605 kts 67°
2026-05-06 07:13 37.64923 143.00867 33186 ft 605 kts 67°
2026-05-06 07:13 37.68056 143.10726 33176 ft 606 kts 67°
2026-05-06 07:14 37.71185 143.20605 33173 ft 606 kts 68°
2026-05-06 07:14 37.74307 143.30486 33184 ft 606 kts 68°
2026-05-06 07:15 37.77427 143.40392 33181 ft 607 kts 68°
2026-05-06 07:15 37.80696 143.50207 33198 ft 605 kts 59°
2026-05-06 07:15 37.82985 143.54638 33181 ft 598 kts 46°
2026-05-06 07:16 37.85808 143.58443 33182 ft 591 kts 38°
2026-05-06 07:16 37.91903 143.65421 33190 ft 590 kts 34°
2026-05-06 07:17 37.98152 143.72194 33178 ft 592 kts 34°
2026-05-06 07:17 38.04363 143.78957 33181 ft 593 kts 34°
2026-05-06 07:18 38.10640 143.85888 33179 ft 594 kts 34°
2026-05-06 07:18 38.16817 143.92758 33181 ft 594 kts 35°
2026-05-06 07:19 38.23038 143.99693 33190 ft 595 kts 34°
2026-05-06 07:19 38.29280 144.06659 33178 ft 598 kts 34°
2026-05-06 07:20 38.35530 144.13651 33178 ft 598 kts 34°
2026-05-06 07:20 38.41774 144.20655 33178 ft 598 kts 34°
2026-05-06 07:21 38.48020 144.27677 33176 ft 598 kts 34°
2026-05-06 07:21 38.54262 144.34712 33189 ft 598 kts 34°
2026-05-06 07:22 38.60511 144.41771 33177 ft 600 kts 34°
2026-05-06 07:22 38.66767 144.48851 33179 ft 601 kts 34°
2026-05-06 07:23 38.73009 144.55955 33181 ft 601 kts 34°
2026-05-06 07:23 38.79245 144.63083 33180 ft 601 kts 34°
2026-05-06 07:24 38.85475 144.70223 33194 ft 601 kts 34°
2026-05-06 07:24 38.91712 144.77383 33180 ft 602 kts 34°
2026-05-06 07:25 38.97943 144.84557 33175 ft 601 kts 34°
2026-05-06 07:25 39.04167 144.91740 33175 ft 601 kts 34°
2026-05-06 07:26 39.10388 144.98938 33176 ft 601 kts 34°
2026-05-06 07:26 39.16603 145.06146 33198 ft 601 kts 33°
2026-05-06 07:27 39.22816 145.13366 33168 ft 602 kts 33°
2026-05-06 07:27 39.29035 145.20613 33172 ft 602 kts 33°
2026-05-06 07:28 39.35247 145.27873 33172 ft 602 kts 34°
2026-05-06 07:28 39.44504 145.38727 33170 ft 601 kts 34°
2026-05-06 07:29 39.50695 145.46005 33163 ft 601 kts 34°
2026-05-06 07:29 39.56878 145.53295 33167 ft 600 kts 33°
2026-05-06 07:30 39.63038 145.60575 33171 ft 599 kts 34°
2026-05-06 07:30 39.69199 145.67872 33180 ft 599 kts 34°
2026-05-06 07:31 39.75337 145.75164 33165 ft 597 kts 34°
2026-05-06 07:31 39.81454 145.82445 33165 ft 596 kts 34°
2026-05-06 07:32 39.87559 145.89732 33166 ft 594 kts 34°
2026-05-06 07:32 39.93626 145.97001 33165 ft 592 kts 34°
2026-05-06 07:33 39.99692 146.04279 33163 ft 592 kts 34°
2026-05-06 07:33 40.05737 146.11554 33159 ft 590 kts 34°
2026-05-06 07:34 40.11768 146.18826 33159 ft 589 kts 35°
2026-05-06 07:34 40.17762 146.26075 33157 ft 586 kts 35°
2026-05-06 07:35 40.23734 146.33310 33157 ft 585 kts 35°
2026-05-06 07:35 40.29668 146.40517 33161 ft 585 kts 35°
2026-05-06 07:36 40.35611 146.47757 33154 ft 583 kts 35°
2026-05-06 07:36 40.41550 146.55008 33189 ft 583 kts 37°
2026-05-06 07:37 40.47404 146.62187 33150 ft 569 kts 37°
2026-05-06 07:37 40.53158 146.69254 33152 ft 565 kts 37°
2026-05-06 07:38 40.58899 146.76308 33154 ft 565 kts 37°
2026-05-06 07:38 40.64640 146.83383 33148 ft 565 kts 37°
2026-05-06 07:39 40.70371 146.90468 33149 ft 565 kts 37°
2026-05-06 07:39 40.76092 146.97558 33145 ft 561 kts 38°
2026-05-06 07:40 40.81737 147.04582 33137 ft 555 kts 38°
2026-05-06 07:40 40.87358 147.11582 33138 ft 555 kts 38°
2026-05-06 07:41 40.92965 147.18581 33133 ft 554 kts 38°
2026-05-06 07:41 40.98553 147.25576 33140 ft 553 kts 38°
2026-05-06 07:42 41.04142 147.32587 33133 ft 553 kts 38°
2026-05-06 07:42 41.09711 147.39593 33131 ft 550 kts 38°
2026-05-06 07:43 41.15246 147.46575 33126 ft 549 kts 38°
2026-05-06 07:43 41.20773 147.53561 33127 ft 549 kts 38°
2026-05-06 07:44 41.26291 147.60553 33121 ft 548 kts 38°
2026-05-06 07:44 41.31802 147.67552 33121 ft 548 kts 38°
2026-05-06 07:45 41.37306 147.74562 33123 ft 547 kts 38°
2026-05-06 07:45 41.41866 147.80386 33123 ft 544 kts 39°
2026-05-06 07:46 41.47311 147.87354 33120 ft 542 kts 39°
2026-05-06 07:46 41.52742 147.94314 33113 ft 542 kts 39°
2026-05-06 07:47 41.58161 148.01279 33116 ft 540 kts 39°
2026-05-06 07:47 41.63572 148.08252 33116 ft 540 kts 39°
2026-05-06 07:48 41.68972 148.15227 33107 ft 540 kts 39°
2026-05-06 07:48 41.74370 148.22216 33100 ft 539 kts 39°
2026-05-06 07:49 41.79713 148.29234 33108 ft 538 kts 40°
2026-05-06 07:49 41.85032 148.36301 33100 ft 537 kts 40°
2026-05-06 07:50 41.90326 148.43346 33097 ft 536 kts 40°
2026-05-06 07:50 41.95617 148.50388 33107 ft 536 kts 40°
2026-05-06 07:51 42.00909 148.57443 33096 ft 535 kts 40°
2026-05-06 07:51 42.06151 148.64449 33097 ft 534 kts 41°
2026-05-06 07:52 42.11387 148.71469 33089 ft 529 kts 41°
2026-05-06 07:52 42.16597 148.78469 33090 ft 528 kts 41°
2026-05-06 07:53 42.21821 148.85504 33085 ft 527 kts 41°
2026-05-06 07:53 42.27006 148.92502 33085 ft 527 kts 41°
2026-05-06 07:54 42.32147 148.99461 33074 ft 527 kts 41°
2026-05-06 07:54 42.37316 149.06474 33074 ft 526 kts 41°
2026-05-06 07:55 42.42474 149.13490 33078 ft 525 kts 41°
2026-05-06 07:55 42.47648 149.20546 33067 ft 524 kts 41°
2026-05-06 07:56 42.52776 149.27555 33069 ft 523 kts 41°
2026-05-06 07:56 42.57897 149.34572 33069 ft 523 kts 41°
2026-05-06 07:57 42.63015 149.41602 33066 ft 523 kts 41°
2026-05-06 07:57 42.68128 149.48644 33069 ft 523 kts 41°
2026-05-06 07:58 42.73200 149.55645 33068 ft 523 kts 41°
2026-05-06 07:58 42.78300 149.62705 33068 ft 523 kts 41°
2026-05-06 07:59 42.83398 149.69777 33061 ft 523 kts 41°
2026-05-06 07:59 42.88493 149.76862 33059 ft 523 kts 41°
2026-05-06 08:00 42.93582 149.83958 33064 ft 523 kts 41°
2026-05-06 08:00 42.98667 149.91067 33061 ft 523 kts 41°
2026-05-06 08:01 43.03749 149.98188 33053 ft 523 kts 41°
2026-05-06 08:01 43.08824 150.05319 33053 ft 523 kts 41°
2026-05-06 08:02 43.13904 150.12473 33050 ft 524 kts 41°
2026-05-06 08:02 43.18977 150.19638 33045 ft 524 kts 41°
2026-05-06 08:03 43.24049 150.26818 33045 ft 524 kts 41°
2026-05-06 08:03 43.29116 150.34010 33040 ft 524 kts 41°
2026-05-06 08:04 43.34180 150.41216 33039 ft 524 kts 41°
2026-05-06 08:04 43.39241 150.48436 33037 ft 524 kts 41°
2026-05-06 08:05 43.44297 150.55669 33032 ft 525 kts 41°
2026-05-06 08:05 43.49367 150.62938 33029 ft 527 kts 41°
2026-05-06 08:06 43.54442 150.70233 33028 ft 527 kts 41°
2026-05-06 08:06 43.59512 150.77543 33027 ft 528 kts 41°
2026-05-06 08:07 43.64591 150.84883 33020 ft 529 kts 41°
2026-05-06 08:07 43.69672 150.92245 33015 ft 529 kts 41°
2026-05-06 08:08 43.74746 150.99618 33031 ft 529 kts 41°
2026-05-06 08:08 43.79827 151.07017 33007 ft 532 kts 41°
2026-05-06 08:09 43.84916 151.14449 33017 ft 532 kts 41°
2026-05-06 08:09 43.90006 151.21903 33012 ft 532 kts 41°
2026-05-06 08:10 43.95096 151.29378 32998 ft 534 kts 41°
2026-05-06 08:10 44.00193 151.36880 33002 ft 534 kts 41°
2026-05-06 08:11 44.05288 151.44402 33006 ft 534 kts 41°
2026-05-06 08:11 44.10342 151.51883 33008 ft 535 kts 41°
2026-05-06 08:12 44.15447 151.59457 32994 ft 537 kts 41°
2026-05-06 08:12 44.20556 151.67059 32992 ft 538 kts 41°
2026-05-06 08:13 44.25659 151.74678 32998 ft 538 kts 41°
2026-05-06 08:13 44.30764 151.82316 32988 ft 538 kts 41°
2026-05-06 08:14 44.35868 151.89973 32987 ft 538 kts 41°
2026-05-06 08:14 44.40963 151.97639 32993 ft 538 kts 41°
2026-05-06 08:15 44.46056 152.05324 32983 ft 538 kts 41°
2026-05-06 08:15 44.51136 152.13011 32976 ft 537 kts 41°
2026-05-06 08:16 44.56200 152.20693 32982 ft 536 kts 41°
2026-05-06 08:16 44.61262 152.28393 32978 ft 536 kts 41°
2026-05-06 08:17 44.66316 152.36101 32972 ft 536 kts 41°
2026-05-06 08:17 44.71361 152.43818 32971 ft 536 kts 41°
2026-05-06 08:18 44.76402 152.51551 32970 ft 536 kts 41°
2026-05-06 08:18 44.81437 152.59296 32968 ft 536 kts 41°
2026-05-06 08:19 44.86466 152.67054 32957 ft 534 kts 41°
2026-05-06 08:19 44.91460 152.74781 32958 ft 533 kts 41°
2026-05-06 08:20 44.96447 152.82515 32957 ft 533 kts 41°
2026-05-06 08:20 45.01432 152.90267 32952 ft 533 kts 41°
2026-05-06 08:21 45.06413 152.98034 32965 ft 533 kts 41°
2026-05-06 08:21 45.11384 153.05810 32941 ft 533 kts 41°
2026-05-06 08:22 45.16351 153.13602 32941 ft 533 kts 41°
2026-05-06 08:22 45.21314 153.21408 32939 ft 533 kts 41°
2026-05-06 08:23 45.26267 153.29223 32933 ft 533 kts 41°
2026-05-06 08:23 45.31226 153.37065 32930 ft 533 kts 41°
2026-05-06 08:24 45.36174 153.44914 32927 ft 533 kts 41°
2026-05-06 08:24 45.41115 153.52775 32932 ft 533 kts 41°
2026-05-06 08:25 45.46030 153.60617 32928 ft 534 kts 41°
2026-05-06 08:25 45.50972 153.68522 32917 ft 534 kts 41°
2026-05-06 08:26 45.55905 153.76453 32918 ft 534 kts 41°
2026-05-06 08:26 45.60804 153.84437 32914 ft 535 kts 41°
2026-05-06 08:27 45.65695 153.92443 32914 ft 535 kts 41°
2026-05-06 08:27 45.70584 154.00455 32911 ft 535 kts 41°
2026-05-06 08:28 45.75470 154.08479 32915 ft 535 kts 41°
2026-05-06 08:28 45.80354 154.16522 32911 ft 535 kts 41°
2026-05-06 08:29 45.85235 154.24583 32905 ft 535 kts 41°
2026-05-06 08:29 45.90111 154.32661 32927 ft 535 kts 41°
2026-05-06 08:30 45.94975 154.40743 32905 ft 535 kts 40°
2026-05-06 08:30 45.99022 154.47483 32892 ft 535 kts 40°
2026-05-06 08:31 46.03882 154.55601 32896 ft 535 kts 41°
2026-05-06 08:31 46.08740 154.63739 32902 ft 536 kts 41°
2026-05-06 08:32 46.13590 154.71888 32891 ft 536 kts 41°
2026-05-06 08:32 46.18444 154.80068 32882 ft 536 kts 41°
2026-05-06 08:33 46.23289 154.88257 32920 ft 536 kts 41°
2026-05-06 08:33 46.28129 154.96465 32908 ft 538 kts 40°
2026-05-06 08:34 46.35404 155.08839 32878 ft 538 kts 40°
2026-05-06 08:35 46.40243 155.17106 32894 ft 539 kts 40°
2026-05-06 08:35 46.45087 155.25405 32874 ft 539 kts 40°
2026-05-06 08:36 46.49923 155.33714 32875 ft 539 kts 40°
2026-05-06 08:36 46.54753 155.42040 32876 ft 539 kts 40°
2026-05-06 08:37 46.59581 155.50385 32869 ft 539 kts 40°
2026-05-06 08:37 46.64400 155.58742 32867 ft 539 kts 40°
2026-05-06 08:38 46.69216 155.67119 32866 ft 539 kts 41°
2026-05-06 08:38 46.74027 155.75513 32889 ft 540 kts 40°
2026-05-06 08:39 46.78834 155.83926 32866 ft 540 kts 40°
2026-05-06 08:39 46.83603 155.92296 32854 ft 540 kts 40°
2026-05-06 08:40 46.88402 156.00745 32845 ft 540 kts 41°
2026-05-06 08:40 46.93194 156.09211 32850 ft 540 kts 40°
2026-05-06 08:41 46.97978 156.17686 32855 ft 540 kts 40°
2026-05-06 08:41 47.02762 156.26185 32846 ft 541 kts 40°
2026-05-06 08:42 47.07544 156.34707 32867 ft 542 kts 40°
2026-05-06 08:42 47.12327 156.43261 32847 ft 542 kts 40°
2026-05-06 08:43 47.17107 156.51835 32834 ft 543 kts 40°
2026-05-06 08:43 47.21884 156.60434 32833 ft 543 kts 40°
2026-05-06 08:44 47.26654 156.69046 32834 ft 543 kts 40°
2026-05-06 08:44 47.31434 156.77698 32826 ft 545 kts 40°
2026-05-06 08:45 47.36205 156.86367 32824 ft 545 kts 40°
2026-05-06 08:45 47.40977 156.95065 32867 ft 546 kts 40°
2026-05-06 08:46 47.45768 157.03821 32815 ft 549 kts 40°
2026-05-06 08:46 47.50559 157.12607 32810 ft 549 kts 40°
2026-05-06 08:47 47.55352 157.21432 32808 ft 550 kts 40°
2026-05-06 08:47 47.60135 157.30264 32806 ft 551 kts 40°
2026-05-06 08:48 47.64932 157.39144 32800 ft 552 kts 40°
2026-05-06 08:48 47.69721 157.48044 32800 ft 552 kts 40°
2026-05-06 08:49 47.74506 157.56968 32834 ft 552 kts 40°
2026-05-06 08:49 47.79307 157.65940 32785 ft 556 kts 40°
2026-05-06 08:50 47.84118 157.74969 32791 ft 557 kts 41°
2026-05-06 08:50 47.88919 157.84017 32784 ft 557 kts 41°
2026-05-06 08:51 47.93719 157.93088 32783 ft 557 kts 41°
2026-05-06 08:51 47.98513 158.02175 32775 ft 558 kts 41°
2026-05-06 08:52 48.03304 158.11287 32765 ft 558 kts 41°
2026-05-06 08:52 48.08089 158.20420 32764 ft 558 kts 41°
2026-05-06 08:53 48.12868 158.29567 32759 ft 558 kts 42°
2026-05-06 08:53 48.17642 158.38745 32758 ft 558 kts 42°
2026-05-06 08:54 48.22411 158.47942 32755 ft 559 kts 42°
2026-05-06 08:54 48.27172 158.57151 32755 ft 559 kts 42°
2026-05-06 08:55 48.31927 158.66381 32754 ft 559 kts 42°
2026-05-06 08:55 48.36679 158.75637 32743 ft 559 kts 42°
2026-05-06 08:56 48.41422 158.84907 32741 ft 559 kts 42°
2026-05-06 08:56 48.46156 158.94189 32737 ft 559 kts 43°
2026-05-06 08:57 48.50883 159.03493 32729 ft 558 kts 43°
2026-05-06 08:57 48.55597 159.12806 32730 ft 558 kts 44°
2026-05-06 08:58 48.60305 159.22134 32736 ft 558 kts 44°
2026-05-06 08:58 48.64968 159.31407 32724 ft 558 kts 44°
2026-05-06 08:59 48.69658 159.40765 32724 ft 558 kts 44°
2026-05-06 08:59 48.74336 159.50132 32723 ft 558 kts 44°
2026-05-06 09:00 48.79010 159.59520 32718 ft 557 kts 45°
2026-05-06 09:00 48.83676 159.68927 32755 ft 558 kts 45°
2026-05-06 09:01 48.88325 159.78335 32710 ft 557 kts 45°
2026-05-06 09:01 48.92961 159.87751 32736 ft 556 kts 45°
2026-05-06 09:02 48.97592 159.97186 32702 ft 556 kts 46°
2026-05-06 09:02 49.02195 160.06666 32702 ft 557 kts 46°
2026-05-06 09:03 49.06693 160.16313 32700 ft 558 kts 47°
2026-05-06 09:03 49.11165 160.25992 32697 ft 558 kts 47°
2026-05-06 09:04 49.15637 160.35652 32691 ft 557 kts 47°
2026-05-06 09:04 49.20107 160.45310 32692 ft 557 kts 47°
2026-05-06 09:05 49.24573 160.54986 32687 ft 556 kts 48°
2026-05-06 09:05 49.29013 160.64642 32684 ft 554 kts 48°
2026-05-06 09:06 49.33417 160.74257 32683 ft 554 kts 48°
2026-05-06 09:06 49.37866 160.84005 32673 ft 554 kts 48°
2026-05-06 09:07 49.42246 160.93638 32690 ft 554 kts 49°
2026-05-06 09:07 49.46640 161.03337 32672 ft 552 kts 49°
2026-05-06 09:08 49.51044 161.13096 32667 ft 552 kts 49°
2026-05-06 09:08 49.55372 161.22758 32661 ft 552 kts 49°
2026-05-06 09:09 49.59699 161.32525 32665 ft 550 kts 50°
2026-05-06 09:09 49.63986 161.42243 32656 ft 546 kts 50°
2026-05-06 09:10 49.68253 161.51933 32649 ft 546 kts 50°
2026-05-06 09:10 49.72518 161.61642 32650 ft 546 kts 50°
2026-05-06 09:11 49.76773 161.71363 32646 ft 545 kts 51°
2026-05-06 09:11 49.81005 161.81076 32636 ft 544 kts 51°
2026-05-06 09:12 49.85225 161.90794 32636 ft 544 kts 51°
2026-05-06 09:12 49.89441 162.00536 32634 ft 544 kts 51°
2026-05-06 09:13 49.93653 162.10305 32633 ft 544 kts 51°
2026-05-06 09:13 49.97852 162.20079 32642 ft 543 kts 51°
2026-05-06 09:14 50.02030 162.29845 32626 ft 542 kts 51°
2026-05-06 09:14 50.06196 162.39616 32651 ft 542 kts 52°
2026-05-06 09:15 50.10364 162.49423 32625 ft 543 kts 52°
2026-05-06 09:15 50.14523 162.59252 32625 ft 543 kts 52°
2026-05-06 09:16 50.17974 162.67438 32624 ft 543 kts 52°
2026-05-06 09:16 50.22117 162.77296 32644 ft 543 kts 53°
2026-05-06 09:17 50.26260 162.87183 32611 ft 544 kts 53°
2026-05-06 09:17 50.30387 162.97077 32609 ft 544 kts 53°
2026-05-06 09:18 50.34509 163.06996 32608 ft 544 kts 53°
2026-05-06 09:18 50.38623 163.16933 32612 ft 543 kts 53°
2026-05-06 09:19 50.42716 163.26860 32608 ft 541 kts 53°
2026-05-06 09:19 50.46789 163.36773 32597 ft 541 kts 53°
2026-05-06 09:20 50.50858 163.46715 32597 ft 541 kts 53°
2026-05-06 09:20 50.54916 163.56664 32593 ft 540 kts 54°
2026-05-06 09:21 50.58919 163.66521 32589 ft 537 kts 54°
2026-05-06 09:21 50.62934 163.76443 32589 ft 537 kts 54°
2026-05-06 09:22 50.66939 163.86377 32587 ft 537 kts 54°
2026-05-06 09:22 50.70941 163.96337 32586 ft 537 kts 54°
2026-05-06 09:23 50.74914 164.06271 32577 ft 535 kts 54°
2026-05-06 09:23 50.78879 164.16224 32578 ft 535 kts 55°
2026-05-06 09:24 50.82831 164.26180 32578 ft 535 kts 55°
2026-05-06 09:24 50.86778 164.36155 32570 ft 534 kts 55°
2026-05-06 09:25 50.90712 164.46142 32567 ft 534 kts 55°
2026-05-06 09:25 50.94647 164.56119 32565 ft 534 kts 55°
2026-05-06 09:26 50.98593 164.66109 32556 ft 534 kts 55°
2026-05-06 09:26 51.02524 164.76107 32555 ft 533 kts 55°
2026-05-06 09:27 51.06431 164.86100 32565 ft 533 kts 56°
2026-05-06 09:27 51.10337 164.96132 32542 ft 532 kts 56°
2026-05-06 09:28 51.14224 165.06154 32542 ft 532 kts 56°
2026-05-06 09:28 51.18106 165.16199 32544 ft 532 kts 56°
2026-05-06 09:29 51.21974 165.26249 32544 ft 531 kts 56°
2026-05-06 09:29 51.25830 165.36309 32545 ft 531 kts 56°
2026-05-06 09:30 51.29676 165.46378 32534 ft 531 kts 56°
2026-05-06 09:30 51.33517 165.56477 32528 ft 531 kts 57°
2026-05-06 09:31 51.37349 165.66579 32532 ft 531 kts 56°
2026-05-06 09:31 51.41187 165.76684 32529 ft 531 kts 56°
2026-05-06 09:32 51.45016 165.86798 32527 ft 530 kts 57°
2026-05-06 09:32 51.48806 165.96852 32525 ft 530 kts 57°
2026-05-06 09:33 51.52606 166.06979 32524 ft 530 kts 57°
2026-05-06 09:33 51.56403 166.17135 32511 ft 530 kts 57°
2026-05-06 09:34 51.60189 166.27306 32511 ft 530 kts 57°
2026-05-06 09:34 51.63965 166.37486 32512 ft 530 kts 57°
2026-05-06 09:35 51.67732 166.47685 32513 ft 529 kts 57°
2026-05-06 09:35 51.71485 166.57888 32507 ft 529 kts 57°
2026-05-06 09:36 51.75231 166.68111 32504 ft 529 kts 58°
2026-05-06 09:36 51.78967 166.78350 32510 ft 529 kts 58°
2026-05-06 09:37 51.82689 166.88585 32508 ft 528 kts 58°
2026-05-06 09:37 51.86400 166.98841 32498 ft 529 kts 58°
2026-05-06 09:38 51.90107 167.09127 32497 ft 529 kts 58°
2026-05-06 09:38 51.93804 167.19424 32498 ft 529 kts 58°
2026-05-06 09:39 51.97491 167.29728 32500 ft 529 kts 59°
2026-05-06 09:39 52.01173 167.40069 32495 ft 530 kts 59°
2026-05-06 09:40 52.04845 167.50422 32493 ft 529 kts 59°
2026-05-06 09:40 52.10329 167.65966 32493 ft 529 kts 59°
2026-05-06 09:41 52.13981 167.76367 32497 ft 528 kts 59°
2026-05-06 09:41 52.17608 167.86743 32491 ft 527 kts 60°
2026-05-06 09:42 52.21207 167.97083 32496 ft 528 kts 60°
2026-05-06 09:42 52.24825 168.07519 32498 ft 528 kts 60°
2026-05-06 09:43 52.28430 168.17953 32494 ft 526 kts 60°
2026-05-06 09:43 52.32018 168.28390 32501 ft 526 kts 60°
2026-05-06 09:44 52.35602 168.38862 32502 ft 528 kts 60°
2026-05-06 09:44 52.39175 168.49346 32505 ft 526 kts 60°
2026-05-06 09:45 52.42729 168.59810 32501 ft 526 kts 61°
2026-05-06 09:45 52.46284 168.70327 32501 ft 527 kts 61°
2026-05-06 09:46 52.49822 168.80839 32509 ft 525 kts 61°
2026-05-06 09:46 52.53345 168.91347 32507 ft 526 kts 62°
2026-05-06 09:47 52.56866 169.01898 32507 ft 526 kts 62°
2026-05-06 09:47 52.60361 169.12416 32510 ft 523 kts 62°
2026-05-06 09:48 52.63842 169.22931 32511 ft 524 kts 62°
2026-05-06 09:48 52.67325 169.33503 32522 ft 524 kts 62°
2026-05-06 09:49 52.70788 169.44057 32514 ft 522 kts 62°
2026-05-06 09:49 52.74231 169.54586 32521 ft 521 kts 63°
2026-05-06 09:50 52.77662 169.65137 32521 ft 521 kts 63°
2026-05-06 09:50 52.81076 169.75683 32531 ft 519 kts 63°
2026-05-06 09:51 52.84477 169.86220 32528 ft 520 kts 63°
2026-05-06 09:51 52.87867 169.96772 32531 ft 518 kts 63°
2026-05-06 09:52 52.91229 170.07294 32530 ft 516 kts 63°
2026-05-06 09:52 52.94987 170.17429 32519 ft 519 kts 52°
2026-05-06 09:53 52.99613 170.26676 32532 ft 521 kts 50°
2026-05-06 09:53 53.04341 170.35777 32532 ft 517 kts 50°
2026-05-06 09:54 53.09063 170.44853 32529 ft 520 kts 50°
2026-05-06 09:54 53.13746 170.53938 32541 ft 518 kts 50°
2026-05-06 09:55 53.18450 170.63088 32540 ft 523 kts 51°
2026-05-06 09:55 53.23134 170.72273 32540 ft 519 kts 51°
2026-05-06 09:56 53.27779 170.81420 32533 ft 514 kts 51°
2026-05-06 09:56 53.32405 170.90538 32546 ft 515 kts 51°
2026-05-06 09:57 53.37029 170.99696 32540 ft 515 kts 51°
2026-05-06 09:57 53.41612 171.08809 32538 ft 514 kts 51°
2026-05-06 09:58 53.46218 171.17992 32540 ft 514 kts 51°
2026-05-06 09:58 53.50811 171.27183 32542 ft 513 kts 52°
2026-05-06 09:59 53.55378 171.36366 32550 ft 512 kts 52°
2026-05-06 09:59 53.59943 171.45578 32551 ft 512 kts 52°
2026-05-06 10:00 53.64497 171.54800 32557 ft 512 kts 52°
2026-05-06 10:00 53.69045 171.64043 32554 ft 512 kts 52°
2026-05-06 10:01 53.73584 171.73296 32556 ft 512 kts 53°
2026-05-06 10:01 53.78117 171.82580 32552 ft 512 kts 53°
2026-05-06 10:02 53.82644 171.91887 32556 ft 512 kts 53°
2026-05-06 10:02 53.87158 172.01201 32556 ft 512 kts 53°
2026-05-06 10:03 53.90908 172.08963 32556 ft 512 kts 53°
2026-05-06 10:03 53.95413 172.18314 32555 ft 511 kts 53°
2026-05-06 10:04 53.99903 172.27678 32555 ft 511 kts 53°
2026-05-06 10:04 54.04387 172.37052 32556 ft 510 kts 54°
2026-05-06 10:05 54.08846 172.46424 32559 ft 509 kts 54°
2026-05-06 10:05 54.13298 172.55818 32559 ft 509 kts 54°
2026-05-06 10:06 54.17744 172.65227 32562 ft 509 kts 54°
2026-05-06 10:06 54.22178 172.74649 32561 ft 509 kts 54°
2026-05-06 10:07 54.26601 172.84091 32567 ft 509 kts 55°
2026-05-06 10:07 54.30880 172.93710 32566 ft 507 kts 57°
2026-05-06 10:08 54.35062 173.03413 32578 ft 505 kts 57°
2026-05-06 10:08 54.39248 173.13093 32580 ft 504 kts 58°
2026-05-06 10:09 54.43427 173.22739 32590 ft 503 kts 57°
2026-05-06 10:09 54.47607 173.32398 32591 ft 503 kts 57°
2026-05-06 10:10 54.51776 173.42063 32601 ft 503 kts 58°
2026-05-06 10:10 54.55937 173.51761 32603 ft 503 kts 58°
2026-05-06 10:11 54.60091 173.61463 32614 ft 502 kts 58°
2026-05-06 10:11 54.64182 173.71062 32617 ft 499 kts 59°
2026-05-06 10:12 54.68284 173.80737 32631 ft 499 kts 59°
2026-05-06 10:12 54.72378 173.90432 32631 ft 499 kts 59°
2026-05-06 10:13 54.76465 174.00141 32644 ft 499 kts 59°
2026-05-06 10:13 54.80549 174.09873 32644 ft 499 kts 59°
2026-05-06 10:14 54.84614 174.19607 32658 ft 499 kts 59°
2026-05-06 10:14 54.88677 174.29373 32652 ft 498 kts 60°
2026-05-06 10:15 54.92720 174.39130 32674 ft 498 kts 60°
2026-05-06 10:15 54.96757 174.48914 32677 ft 497 kts 60°
2026-05-06 10:16 55.00782 174.58703 32674 ft 498 kts 60°
2026-05-06 10:16 55.04805 174.68529 32695 ft 497 kts 60°
2026-05-06 10:17 55.08786 174.78292 32693 ft 497 kts 60°
2026-05-06 10:17 55.12814 174.88207 32693 ft 497 kts 60°
2026-05-06 10:18 55.16806 174.98071 32696 ft 497 kts 61°
2026-05-06 10:18 55.20782 175.07934 32709 ft 494 kts 61°
2026-05-06 10:19 55.24708 175.17715 32725 ft 494 kts 61°
2026-05-06 10:19 55.28678 175.27647 32728 ft 494 kts 61°
2026-05-06 10:20 55.32590 175.37470 32740 ft 494 kts 61°
2026-05-06 10:20 55.36517 175.47372 32741 ft 494 kts 61°
2026-05-06 10:21 55.40435 175.57289 32717 ft 494 kts 62°
2026-05-06 10:21 55.44338 175.67206 32761 ft 492 kts 62°
2026-05-06 10:22 55.48224 175.77123 32764 ft 491 kts 62°
2026-05-06 10:22 55.52092 175.87037 32780 ft 490 kts 62°
2026-05-06 10:23 55.55950 175.96964 32773 ft 490 kts 62°
2026-05-06 10:23 55.59799 176.06909 32792 ft 490 kts 62°
2026-05-06 10:24 55.63638 176.16868 32794 ft 489 kts 62°
2026-05-06 10:24 55.67468 176.26838 32807 ft 489 kts 62°
2026-05-06 10:25 55.71282 176.36810 32810 ft 489 kts 62°
2026-05-06 10:25 55.75084 176.46797 32827 ft 488 kts 62°
2026-05-06 10:26 55.78874 176.56785 32825 ft 487 kts 62°
2026-05-06 10:26 55.82648 176.66774 32832 ft 488 kts 62°
2026-05-06 10:27 55.86434 176.76840 32846 ft 490 kts 62°
2026-05-06 10:27 55.90218 176.86935 32859 ft 490 kts 62°
2026-05-06 10:28 55.93992 176.97047 32859 ft 490 kts 62°
2026-05-06 10:28 55.97758 177.07180 32875 ft 490 kts 62°
2026-05-06 10:29 56.01515 177.17332 32815 ft 490 kts 62°
2026-05-06 10:29 56.05278 177.27549 32876 ft 493 kts 62°
2026-05-06 10:30 56.09045 177.37813 32895 ft 493 kts 62°
2026-05-06 10:30 56.12780 177.48030 32895 ft 493 kts 62°
2026-05-06 10:31 56.16532 177.58339 32905 ft 493 kts 62°
2026-05-06 10:31 56.20272 177.68658 32911 ft 493 kts 62°
2026-05-06 10:32 56.24002 177.79005 32924 ft 492 kts 62°
2026-05-06 10:32 56.27714 177.89335 32921 ft 492 kts 62°
2026-05-06 10:33 56.31422 177.99700 32933 ft 492 kts 62°
2026-05-06 10:33 56.35121 178.10083 32935 ft 493 kts 62°
2026-05-06 10:34 56.38815 178.20494 32950 ft 493 kts 62°
2026-05-06 10:34 56.42502 178.30936 32932 ft 494 kts 62°
2026-05-06 10:35 56.46197 178.41448 32960 ft 496 kts 62°
2026-05-06 10:35 56.49890 178.51990 32960 ft 496 kts 62°
2026-05-06 10:36 56.53572 178.62550 32972 ft 496 kts 62°
2026-05-06 10:36 56.57247 178.73137 32970 ft 496 kts 62°
2026-05-06 10:37 56.60909 178.83735 32972 ft 496 kts 62°
2026-05-06 10:37 56.64574 178.94389 32981 ft 498 kts 62°
2026-05-06 10:38 56.68235 179.05077 32980 ft 498 kts 62°
2026-05-06 10:38 56.71890 179.15795 32989 ft 498 kts 62°
2026-05-06 10:39 56.75534 179.26526 32999 ft 498 kts 62°
2026-05-06 10:39 56.79169 179.37282 33007 ft 498 kts 62°
2026-05-06 10:40 56.82793 179.48060 33008 ft 499 kts 62°
2026-05-06 10:40 56.86421 179.58892 33024 ft 500 kts 62°
2026-05-06 10:41 56.90039 179.69740 33024 ft 500 kts 62°
2026-05-06 10:41 56.93626 179.80544 33022 ft 500 kts 62°
2026-05-06 10:42 56.97219 179.91416 33030 ft 500 kts 62°
2026-05-06 10:42 56.99017 179.96874 33245 ft 498 kts 63°
2026-05-06 10:42 57.00947 -179.97849 33627 ft 498 kts 58°
2026-05-06 10:43 57.02955 -179.92684 33888 ft 498 kts 57°
2026-05-06 10:43 57.04989 -179.87520 34131 ft 499 kts 57°
2026-05-06 10:43 57.07032 -179.82369 34382 ft 498 kts 57°
2026-05-06 10:44 57.11115 -179.72075 34818 ft 498 kts 57°
2026-05-06 10:44 57.13156 -179.66906 34999 ft 499 kts 57°
2026-05-06 10:44 57.15200 -179.61714 35047 ft 503 kts 57°
2026-05-06 10:45 57.19320 -179.51205 35059 ft 506 kts 57°
2026-05-06 10:45 57.23431 -179.40669 35060 ft 506 kts 57°
2026-05-06 10:46 57.27529 -179.30121 35064 ft 505 kts 57°
2026-05-06 10:46 57.31618 -179.19545 35070 ft 505 kts 57°
2026-05-06 10:47 57.35696 -179.08951 35071 ft 505 kts 57°
2026-05-06 10:47 57.39767 -178.98330 35075 ft 506 kts 57°
2026-05-06 10:48 57.43831 -178.87679 35087 ft 506 kts 57°
2026-05-06 10:48 57.47888 -178.77004 35077 ft 506 kts 57°
2026-05-06 10:49 57.51936 -178.66305 35096 ft 506 kts 57°
2026-05-06 10:49 57.55977 -178.55570 35097 ft 506 kts 57°
2026-05-06 10:50 57.60005 -178.44825 35103 ft 506 kts 57°
2026-05-06 10:50 57.64023 -178.34057 35102 ft 506 kts 57°
2026-05-06 10:51 57.67355 -178.25082 35113 ft 506 kts 57°
2026-05-06 10:51 57.71362 -178.14259 35108 ft 506 kts 56°
2026-05-06 10:52 57.75361 -178.03413 35122 ft 506 kts 57°
2026-05-06 10:52 57.79353 -177.92528 35119 ft 507 kts 57°
2026-05-06 10:53 57.83334 -177.81623 35122 ft 507 kts 57°
2026-05-06 10:53 57.87306 -177.70696 35126 ft 507 kts 57°
2026-05-06 10:54 57.91266 -177.59748 35130 ft 506 kts 57°
2026-05-06 10:54 57.95215 -177.48782 35129 ft 506 kts 56°
2026-05-06 10:55 57.99161 -177.37775 35132 ft 507 kts 56°
2026-05-06 10:55 58.03096 -177.26751 35141 ft 507 kts 56°
2026-05-06 10:56 58.07019 -177.15703 35144 ft 507 kts 56°
2026-05-06 10:56 58.10934 -177.04631 35144 ft 507 kts 56°
2026-05-06 10:57 58.14842 -176.93525 35143 ft 507 kts 57°
2026-05-06 10:57 58.18734 -176.82392 35143 ft 506 kts 56°
2026-05-06 10:58 58.22616 -176.71258 35148 ft 506 kts 56°
2026-05-06 10:58 58.26491 -176.60105 35148 ft 506 kts 56°
2026-05-06 10:59 58.30355 -176.48920 35154 ft 506 kts 56°
2026-05-06 10:59 58.34183 -176.37784 35153 ft 506 kts 56°
2026-05-06 11:00 58.38027 -176.26549 35152 ft 506 kts 56°
2026-05-06 11:00 58.41864 -176.15285 35155 ft 507 kts 56°
2026-05-06 11:01 58.45692 -176.03986 35159 ft 507 kts 56°
2026-05-06 11:01 58.49509 -175.92667 35165 ft 507 kts 56°
2026-05-06 11:02 58.53317 -175.81322 35165 ft 507 kts 56°
2026-05-06 11:02 58.57112 -175.69963 35167 ft 507 kts 56°
2026-05-06 11:03 58.60898 -175.58575 35170 ft 507 kts 56°
2026-05-06 11:03 58.64676 -175.47161 35171 ft 507 kts 56°
2026-05-06 11:04 58.68441 -175.35717 35176 ft 507 kts 55°
2026-05-06 11:04 58.72204 -175.24224 35170 ft 508 kts 55°
2026-05-06 11:05 58.75963 -175.12701 35169 ft 508 kts 56°
2026-05-06 11:05 58.79711 -175.01152 35171 ft 508 kts 56°
2026-05-06 11:06 58.83450 -174.89573 35173 ft 509 kts 55°
2026-05-06 11:06 58.87186 -174.77946 35170 ft 510 kts 55°
2026-05-06 11:07 58.90916 -174.66278 35176 ft 510 kts 55°
2026-05-06 11:07 58.94635 -174.54581 35163 ft 510 kts 55°
2026-05-06 11:08 58.98355 -174.42830 35177 ft 511 kts 55°
2026-05-06 11:08 59.02064 -174.31055 35179 ft 511 kts 55°
2026-05-06 11:09 59.05765 -174.19249 35172 ft 512 kts 54°
2026-05-06 11:09 59.09463 -174.07412 35172 ft 513 kts 55°
2026-05-06 11:10 59.13154 -173.95529 35172 ft 513 kts 55°
2026-05-06 11:10 59.16834 -173.83623 35175 ft 513 kts 55°
2026-05-06 11:11 59.20501 -173.71700 35176 ft 513 kts 55°
2026-05-06 11:11 59.24158 -173.59749 35173 ft 513 kts 55°
2026-05-06 11:12 59.27808 -173.47758 35177 ft 513 kts 55°
2026-05-06 11:12 59.31449 -173.35736 35176 ft 514 kts 55°
2026-05-06 11:13 59.35079 -173.23688 35173 ft 514 kts 55°
2026-05-06 11:13 59.38702 -173.11600 35173 ft 514 kts 55°
2026-05-06 11:14 59.42308 -172.99503 35192 ft 514 kts 55°
2026-05-06 11:14 59.45909 -172.87362 35179 ft 514 kts 55°
2026-05-06 11:15 59.49472 -172.75287 35173 ft 514 kts 55°
2026-05-06 11:15 59.53051 -172.63093 35173 ft 514 kts 56°
2026-05-06 11:16 59.56621 -172.50864 35170 ft 514 kts 56°
2026-05-06 11:16 59.60178 -172.38616 35171 ft 514 kts 56°
2026-05-06 11:17 59.63723 -172.26344 35167 ft 514 kts 56°
2026-05-06 11:17 59.67258 -172.14038 35178 ft 513 kts 56°
2026-05-06 11:18 59.70763 -172.01775 35169 ft 511 kts 57°
2026-05-06 11:18 59.74252 -171.89502 35170 ft 510 kts 57°
2026-05-06 11:19 59.77726 -171.77217 35171 ft 511 kts 57°
2026-05-06 11:19 59.81187 -171.64910 35170 ft 511 kts 57°
2026-05-06 11:20 59.84637 -171.52573 35169 ft 511 kts 57°
2026-05-06 11:20 59.88077 -171.40205 35186 ft 511 kts 57°
2026-05-06 11:21 59.91494 -171.27856 35167 ft 506 kts 58°
2026-05-06 11:21 59.94870 -171.15584 35168 ft 504 kts 58°
2026-05-06 11:22 59.98226 -171.03325 35169 ft 504 kts 58°
2026-05-06 11:22 60.01575 -170.91024 35167 ft 504 kts 59°
2026-05-06 11:23 60.04911 -170.78703 35167 ft 504 kts 59°
2026-05-06 11:23 60.08235 -170.66357 35184 ft 504 kts 59°
2026-05-06 11:24 60.11543 -170.54003 35167 ft 502 kts 59°
2026-05-06 11:24 60.14830 -170.41655 35167 ft 500 kts 59°
2026-05-06 11:25 60.18095 -170.29329 35159 ft 500 kts 59°
2026-05-06 11:25 60.21347 -170.16986 35161 ft 500 kts 60°
2026-05-06 11:26 60.24588 -170.04613 35161 ft 500 kts 60°
2026-05-06 11:26 60.27817 -169.92219 35160 ft 500 kts 60°
2026-05-06 11:27 60.31034 -169.79798 35167 ft 499 kts 60°
2026-05-06 11:27 60.34215 -169.67450 35162 ft 499 kts 60°
2026-05-06 11:28 60.37410 -169.54979 35160 ft 501 kts 60°
2026-05-06 11:28 60.40599 -169.42460 35154 ft 501 kts 60°
2026-05-06 11:29 60.43779 -169.29909 35156 ft 501 kts 60°
2026-05-06 11:29 60.46949 -169.17322 35156 ft 501 kts 60°
2026-05-06 11:30 60.50106 -169.04716 35156 ft 501 kts 60°
2026-05-06 11:30 60.53252 -168.92083 35153 ft 502 kts 60°
2026-05-06 11:31 60.56389 -168.79414 35155 ft 502 kts 60°
2026-05-06 11:31 60.59516 -168.66705 35155 ft 504 kts 60°
2026-05-06 11:32 60.62649 -168.53907 35149 ft 506 kts 60°
2026-05-06 11:32 60.65774 -168.41061 35149 ft 506 kts 60°
2026-05-06 11:33 60.68883 -168.28207 35148 ft 506 kts 60°
2026-05-06 11:33 60.71989 -168.15290 35141 ft 507 kts 61°
2026-05-06 11:34 60.75081 -168.02354 35148 ft 507 kts 61°
2026-05-06 11:34 60.78162 -167.89388 35146 ft 507 kts 61°
2026-05-06 11:35 60.81235 -167.76380 35142 ft 509 kts 60°
2026-05-06 11:35 60.83791 -167.65498 35140 ft 510 kts 61°
2026-05-06 11:36 60.87352 -167.50242 35143 ft 510 kts 61°
2026-05-06 11:36 60.90400 -167.37097 35142 ft 510 kts 61°
2026-05-06 11:37 60.92950 -167.26036 35145 ft 511 kts 61°
2026-05-06 11:37 60.95979 -167.12830 35139 ft 511 kts 61°
2026-05-06 11:38 60.98996 -166.99591 35141 ft 511 kts 61°
2026-05-06 11:38 61.02004 -166.86313 35145 ft 512 kts 61°
2026-05-06 11:39 61.05005 -166.72980 35139 ft 513 kts 61°
2026-05-06 11:39 61.07996 -166.59603 35132 ft 513 kts 61°
2026-05-06 11:40 61.10976 -166.46194 35134 ft 513 kts 61°
2026-05-06 11:40 61.13923 -166.32851 35132 ft 513 kts 62°
2026-05-06 11:41 61.16873 -166.19408 35137 ft 513 kts 62°
2026-05-06 11:41 61.19817 -166.05908 35135 ft 513 kts 62°
2026-05-06 11:42 61.22744 -165.92396 35157 ft 513 kts 62°
2026-05-06 11:42 61.25657 -165.78863 35146 ft 514 kts 62°
2026-05-06 11:43 61.28559 -165.65293 35143 ft 514 kts 62°
2026-05-06 11:43 61.31449 -165.51692 35145 ft 514 kts 62°
2026-05-06 11:44 61.35756 -165.31251 35144 ft 514 kts 62°
2026-05-06 11:44 61.38609 -165.17602 35144 ft 514 kts 63°
2026-05-06 11:45 61.41452 -165.03906 35144 ft 514 kts 63°
2026-05-06 11:45 61.44281 -164.90193 35143 ft 514 kts 63°
2026-05-06 11:46 61.47095 -164.76457 35142 ft 514 kts 63°
2026-05-06 11:46 61.49894 -164.62698 35143 ft 514 kts 63°
2026-05-06 11:47 61.52683 -164.48901 35140 ft 514 kts 63°
2026-05-06 11:47 61.55457 -164.35080 35140 ft 514 kts 63°
2026-05-06 11:48 61.58218 -164.21231 35140 ft 514 kts 63°
2026-05-06 11:48 61.60962 -164.07375 35154 ft 514 kts 64°
2026-05-06 11:49 61.63688 -163.93512 35132 ft 513 kts 64°
2026-05-06 11:49 61.66400 -163.79626 35129 ft 513 kts 64°
2026-05-06 11:50 61.69095 -163.65731 35130 ft 513 kts 64°
2026-05-06 11:50 61.71778 -163.51798 35138 ft 513 kts 64°
2026-05-06 11:51 61.74448 -163.37834 35135 ft 513 kts 64°
2026-05-06 11:51 61.77102 -163.23860 35132 ft 513 kts 65°
2026-05-06 11:52 61.79741 -163.09863 35149 ft 513 kts 65°
2026-05-06 11:52 61.82362 -162.95861 35135 ft 512 kts 65°
2026-05-06 11:53 61.84968 -162.81841 35138 ft 512 kts 65°
2026-05-06 11:53 61.87540 -162.67910 35138 ft 512 kts 65°
2026-05-06 11:54 61.90119 -162.53834 35145 ft 512 kts 65°
2026-05-06 11:54 61.92678 -162.39766 35140 ft 511 kts 66°
2026-05-06 11:55 61.95224 -162.25669 35142 ft 511 kts 66°
2026-05-06 11:55 61.97757 -162.11537 35156 ft 511 kts 66°
2026-05-06 11:56 62.00272 -161.97403 35137 ft 511 kts 66°
2026-05-06 11:56 62.02768 -161.83269 35110 ft 511 kts 66°
2026-05-06 11:57 62.05257 -161.69067 35101 ft 511 kts 66°
2026-05-06 11:57 62.07728 -161.54866 35097 ft 511 kts 66°
2026-05-06 11:58 62.10186 -161.40632 35086 ft 511 kts 66°
2026-05-06 11:58 62.12632 -161.26359 35108 ft 511 kts 67°
2026-05-06 11:59 62.15061 -161.12076 35174 ft 511 kts 67°
2026-05-06 11:59 62.17476 -160.97762 35155 ft 511 kts 67°
2026-05-06 12:00 62.19877 -160.83429 35176 ft 511 kts 67°
2026-05-06 12:00 62.22263 -160.69069 35193 ft 512 kts 67°
2026-05-06 12:01 62.24634 -160.54687 35190 ft 512 kts 67°
2026-05-06 12:01 62.26991 -160.40276 35209 ft 512 kts 68°
2026-05-06 12:02 62.29333 -160.25847 35153 ft 512 kts 68°
2026-05-06 12:02 62.31646 -160.11481 35132 ft 512 kts 68°
2026-05-06 12:03 62.33975 -159.96905 35082 ft 512 kts 68°
2026-05-06 12:03 62.36261 -159.82474 35082 ft 512 kts 68°
2026-05-06 12:04 62.38562 -159.67833 35065 ft 512 kts 68°
2026-05-06 12:04 62.40817 -159.53361 35061 ft 513 kts 69°
2026-05-06 12:05 62.43071 -159.38782 35057 ft 513 kts 69°
2026-05-06 12:05 62.45312 -159.24168 35049 ft 513 kts 69°
2026-05-06 12:06 62.47538 -159.09529 35049 ft 513 kts 69°
2026-05-06 12:06 62.49749 -158.94867 35045 ft 512 kts 70°
2026-05-06 12:07 62.51940 -158.80206 35042 ft 512 kts 70°
2026-05-06 12:07 62.54115 -158.65535 35042 ft 512 kts 70°
2026-05-06 12:08 62.56276 -158.50837 35037 ft 512 kts 70°
2026-05-06 12:08 62.58421 -158.36114 35037 ft 512 kts 70°
2026-05-06 12:09 62.60551 -158.21370 35031 ft 512 kts 70°
2026-05-06 12:09 62.62666 -158.06600 35039 ft 512 kts 70°
2026-05-06 12:10 62.64763 -157.91828 35036 ft 511 kts 71°
2026-05-06 12:10 62.66844 -157.77039 35027 ft 511 kts 71°
2026-05-06 12:11 62.68908 -157.62232 35031 ft 511 kts 71°
2026-05-06 12:11 62.70956 -157.47414 35028 ft 511 kts 71°
2026-05-06 12:12 62.72989 -157.32572 35028 ft 511 kts 71°
2026-05-06 12:12 62.75007 -157.17699 35027 ft 511 kts 72°
2026-05-06 12:13 62.77010 -157.02800 35015 ft 511 kts 72°
2026-05-06 12:13 62.78996 -156.87905 35018 ft 511 kts 72°
2026-05-06 12:14 62.80966 -156.72981 35014 ft 511 kts 72°
2026-05-06 12:14 62.82923 -156.58011 35015 ft 511 kts 73°
2026-05-06 12:15 62.84862 -156.43041 34995 ft 512 kts 73°
2026-05-06 12:15 62.86787 -156.28037 34986 ft 512 kts 73°
2026-05-06 12:16 62.88694 -156.13024 34981 ft 512 kts 73°
2026-05-06 12:16 62.90587 -155.97982 34980 ft 512 kts 73°
2026-05-06 12:17 62.92464 -155.82919 34991 ft 512 kts 73°
2026-05-06 12:17 62.94325 -155.67841 34981 ft 512 kts 74°
2026-05-06 12:18 62.95556 -155.52455 34969 ft 513 kts 82°
2026-05-06 12:18 62.96332 -155.36848 34971 ft 513 kts 83°
2026-05-06 12:19 62.97027 -155.21348 34971 ft 513 kts 84°
2026-05-06 12:19 62.97713 -155.05748 34976 ft 513 kts 84°
2026-05-06 12:20 62.98393 -154.90140 34973 ft 513 kts 84°
2026-05-06 12:20 62.99060 -154.74521 34974 ft 513 kts 84°
2026-05-06 12:21 62.99710 -154.58891 34974 ft 513 kts 84°
2026-05-06 12:21 63.00342 -154.43262 34972 ft 513 kts 84°
2026-05-06 12:22 63.00859 -154.30172 34969 ft 512 kts 85°
2026-05-06 12:22 63.01455 -154.14639 34974 ft 512 kts 85°
2026-05-06 12:23 63.02037 -153.99013 34973 ft 512 kts 85°
2026-05-06 12:23 63.02602 -153.83380 34982 ft 512 kts 85°
2026-05-06 12:24 63.03150 -153.67736 34985 ft 512 kts 85°
2026-05-06 12:24 63.03682 -153.52080 34979 ft 512 kts 85°
2026-05-06 12:25 63.04196 -153.36414 34988 ft 512 kts 86°
2026-05-06 12:25 63.04691 -153.20772 34982 ft 512 kts 86°
2026-05-06 12:26 63.05170 -153.05114 34994 ft 512 kts 86°
2026-05-06 12:26 63.05632 -152.89433 34988 ft 512 kts 86°
2026-05-06 12:27 63.06076 -152.73759 34989 ft 512 kts 86°
2026-05-06 12:27 63.06503 -152.58087 34987 ft 512 kts 87°
2026-05-06 12:28 63.06913 -152.42395 34982 ft 512 kts 87°
2026-05-06 12:28 63.07306 -152.26696 34980 ft 512 kts 87°
2026-05-06 12:29 63.07680 -152.10996 34971 ft 512 kts 87°
2026-05-06 12:29 63.08038 -151.95303 34971 ft 512 kts 88°
2026-05-06 12:30 63.08376 -151.79693 34966 ft 512 kts 88°
2026-05-06 12:30 63.08700 -151.63980 34947 ft 512 kts 88°
2026-05-06 12:31 63.09005 -151.48280 34948 ft 512 kts 88°
2026-05-06 12:31 63.09293 -151.32565 34933 ft 512 kts 89°
2026-05-06 12:32 63.09564 -151.16840 34935 ft 512 kts 89°
2026-05-06 12:32 63.09816 -151.01126 34922 ft 512 kts 89°
2026-05-06 12:33 63.10054 -150.85399 34918 ft 512 kts 89°
2026-05-06 12:33 63.10273 -150.69689 34919 ft 512 kts 89°
2026-05-06 12:34 63.10477 -150.53972 34918 ft 512 kts 89°
2026-05-06 12:34 63.10662 -150.38265 34919 ft 512 kts 90°
2026-05-06 12:35 63.10825 -150.22548 34906 ft 512 kts 90°
2026-05-06 12:35 63.10972 -150.06842 34905 ft 512 kts 90°
2026-05-06 12:36 63.11104 -149.91126 34896 ft 512 kts 90°
2026-05-06 12:36 63.11218 -149.75397 34898 ft 512 kts 90°
2026-05-06 12:37 63.11315 -149.59665 34903 ft 512 kts 91°
2026-05-06 12:37 63.11394 -149.43947 34903 ft 512 kts 91°
2026-05-06 12:38 63.11456 -149.28221 34904 ft 512 kts 91°
2026-05-06 12:38 63.11500 -149.12494 34891 ft 512 kts 91°
2026-05-06 12:39 63.11527 -148.96777 34901 ft 512 kts 91°
2026-05-06 12:39 63.11537 -148.81056 34901 ft 512 kts 91°
2026-05-06 12:40 63.11529 -148.65322 34902 ft 512 kts 92°
2026-05-06 12:40 63.11504 -148.49599 34904 ft 512 kts 92°
2026-05-06 12:41 63.11461 -148.33847 34902 ft 512 kts 92°
2026-05-06 12:41 63.11402 -148.18111 34895 ft 513 kts 92°
2026-05-06 12:42 63.11324 -148.02365 34900 ft 513 kts 92°
2026-05-06 12:42 63.11229 -147.86714 34901 ft 513 kts 92°
2026-05-06 12:43 63.11116 -147.70846 34897 ft 513 kts 92°
2026-05-06 12:43 63.10987 -147.55211 34902 ft 513 kts 93°
2026-05-06 12:44 63.10840 -147.39469 34899 ft 513 kts 93°
2026-05-06 12:44 63.10675 -147.23732 34905 ft 513 kts 93°
2026-05-06 12:45 63.10493 -147.07978 34910 ft 513 kts 93°
2026-05-06 12:46 63.10187 -146.84367 34918 ft 513 kts 94°
2026-05-06 12:46 63.09961 -146.68617 34919 ft 513 kts 94°
2026-05-06 12:47 63.09717 -146.52882 34919 ft 513 kts 94°
2026-05-06 12:47 63.09457 -146.37132 34928 ft 514 kts 94°
2026-05-06 12:48 63.09177 -146.21367 34927 ft 514 kts 94°
2026-05-06 12:48 63.08881 -146.05601 34943 ft 514 kts 94°
2026-05-06 12:49 63.08569 -145.89946 34944 ft 514 kts 95°
2026-05-06 12:49 63.08238 -145.74194 34948 ft 514 kts 95°
2026-05-06 12:50 63.07890 -145.58427 34944 ft 515 kts 95°
2026-05-06 12:50 63.07522 -145.42634 34956 ft 516 kts 95°
2026-05-06 12:51 63.07137 -145.26834 34959 ft 516 kts 95°
2026-05-06 12:51 63.06735 -145.11035 34959 ft 516 kts 95°
2026-05-06 12:52 63.06314 -144.95234 34955 ft 516 kts 95°
2026-05-06 12:52 63.05876 -144.79448 34956 ft 516 kts 96°
2026-05-06 12:53 63.05420 -144.63654 34947 ft 517 kts 96°
2026-05-06 12:53 63.04947 -144.47857 34948 ft 517 kts 96°
2026-05-06 12:54 63.04455 -144.32049 34940 ft 517 kts 96°
2026-05-06 12:54 63.03945 -144.16248 34935 ft 517 kts 96°
2026-05-06 12:55 63.03417 -144.00451 34932 ft 517 kts 96°
2026-05-06 12:55 63.02875 -143.84668 34910 ft 517 kts 97°
2026-05-06 12:56 63.02312 -143.68872 34913 ft 517 kts 97°
2026-05-06 12:56 63.01736 -143.53168 34913 ft 518 kts 97°
2026-05-06 12:57 63.01138 -143.37381 34912 ft 518 kts 97°
2026-05-06 12:57 63.00522 -143.21587 34905 ft 518 kts 97°
2026-05-06 12:58 62.99890 -143.05826 34904 ft 517 kts 97°
2026-05-06 12:58 62.99239 -142.90042 34904 ft 518 kts 97°
2026-05-06 12:59 62.98570 -142.74253 34900 ft 519 kts 98°
2026-05-06 12:59 62.97881 -142.58452 34892 ft 519 kts 98°
2026-05-06 13:00 62.97176 -142.42663 34872 ft 519 kts 98°
2026-05-06 13:00 62.96453 -142.26876 34860 ft 519 kts 98°
2026-05-06 13:01 62.95713 -142.11103 34831 ft 519 kts 98°
2026-05-06 13:01 62.94976 -141.95341 34860 ft 519 kts 96°
2026-05-06 13:02 62.95136 -141.79464 34860 ft 521 kts 88°
2026-05-06 13:02 62.95641 -141.63573 34864 ft 522 kts 88°
2026-05-06 13:03 62.96177 -141.47650 34892 ft 523 kts 88°
2026-05-06 13:03 62.96682 -141.31695 34893 ft 524 kts 88°
2026-05-06 13:04 62.97158 -141.15721 34895 ft 524 kts 88°
2026-05-06 13:04 62.97612 -140.99739 34897 ft 524 kts 88°
2026-05-06 13:05 62.98048 -140.83743 34898 ft 524 kts 89°
2026-05-06 13:05 62.98467 -140.67741 34908 ft 524 kts 89°
2026-05-06 13:06 62.98867 -140.51743 34910 ft 524 kts 89°
2026-05-06 13:06 62.99250 -140.35763 34910 ft 524 kts 89°
2026-05-06 13:07 62.99615 -140.19754 34923 ft 524 kts 89°
2026-05-06 13:07 62.99961 -140.03753 34921 ft 524 kts 89°
2026-05-06 13:08 63.00369 -139.87750 34931 ft 524 kts 88°
2026-05-06 13:08 63.00952 -139.71761 34930 ft 524 kts 87°
2026-05-06 13:09 63.01431 -139.58464 34919 ft 524 kts 88°
2026-05-06 13:09 63.01961 -139.42459 34936 ft 524 kts 88°
2026-05-06 13:10 63.02453 -139.26449 34930 ft 525 kts 88°
2026-05-06 13:10 63.02926 -139.10407 34923 ft 525 kts 88°
2026-05-06 13:11 63.03381 -138.94352 34929 ft 525 kts 89°
2026-05-06 13:11 63.03819 -138.78296 34929 ft 525 kts 89°
2026-05-06 13:12 63.04238 -138.62255 34928 ft 525 kts 89°
2026-05-06 13:12 63.04639 -138.46194 34933 ft 525 kts 89°
2026-05-06 13:13 63.05022 -138.30134 34932 ft 525 kts 89°
2026-05-06 13:13 63.05388 -138.14043 34918 ft 525 kts 89°
2026-05-06 13:14 63.05736 -137.97959 34909 ft 526 kts 89°
2026-05-06 13:14 63.06065 -137.81866 34912 ft 525 kts 89°
2026-05-06 13:15 63.06377 -137.65756 34905 ft 525 kts 90°
2026-05-06 13:15 63.06669 -137.49669 34898 ft 525 kts 90°
2026-05-06 13:16 63.06943 -137.33562 34905 ft 525 kts 90°
2026-05-06 13:16 63.07199 -137.17457 34897 ft 526 kts 90°
2026-05-06 13:17 63.07437 -137.01336 34895 ft 526 kts 90°
2026-05-06 13:17 63.07656 -136.85229 34890 ft 525 kts 90°
2026-05-06 13:18 63.07857 -136.69152 34894 ft 523 kts 91°
2026-05-06 13:18 63.08040 -136.53093 34895 ft 523 kts 91°
2026-05-06 13:19 63.08204 -136.37045 34899 ft 523 kts 91°
2026-05-06 13:19 63.08348 -136.21098 34904 ft 523 kts 91°
2026-05-06 13:20 63.08476 -136.04928 34905 ft 524 kts 91°
2026-05-06 13:20 63.08586 -135.88866 34862 ft 524 kts 91°
2026-05-06 13:21 63.08678 -135.72777 34895 ft 524 kts 91°
2026-05-06 13:21 63.08751 -135.56683 34888 ft 525 kts 91°
2026-05-06 13:22 63.08806 -135.40685 34888 ft 525 kts 92°
2026-05-06 13:22 63.08843 -135.24584 34891 ft 524 kts 92°
2026-05-06 13:23 63.08862 -135.08496 34884 ft 524 kts 92°
2026-05-06 13:23 63.08863 -134.92407 34884 ft 524 kts 92°
2026-05-06 13:24 63.08845 -134.76340 34881 ft 524 kts 92°
2026-05-06 13:24 63.08809 -134.60268 34877 ft 523 kts 92°
2026-05-06 13:25 63.08754 -134.44200 34874 ft 523 kts 92°
2026-05-06 13:25 63.08682 -134.28141 34871 ft 524 kts 93°
2026-05-06 13:26 63.08592 -134.12065 34875 ft 523 kts 93°
2026-05-06 13:26 63.08483 -133.96015 34875 ft 523 kts 93°
2026-05-06 13:27 63.08357 -133.79966 34859 ft 523 kts 93°
2026-05-06 13:27 63.08212 -133.63928 34864 ft 522 kts 93°
2026-05-06 13:28 63.08049 -133.47909 34867 ft 522 kts 94°
2026-05-06 13:28 63.07868 -133.31908 34856 ft 522 kts 94°
2026-05-06 13:29 63.07671 -133.15916 34864 ft 522 kts 94°
2026-05-06 13:29 63.07453 -132.99925 34860 ft 521 kts 94°
2026-05-06 13:30 63.07220 -132.84080 34867 ft 519 kts 94°
2026-05-06 13:30 63.06970 -132.68181 34851 ft 519 kts 95°
2026-05-06 13:31 63.06700 -132.52181 34868 ft 518 kts 95°
2026-05-06 13:31 63.06413 -132.36313 34866 ft 518 kts 95°
2026-05-06 13:32 63.06111 -132.20561 34874 ft 518 kts 95°
2026-05-06 13:32 63.05789 -132.04701 34872 ft 518 kts 95°
2026-05-06 13:33 63.05451 -131.88855 34874 ft 518 kts 96°
2026-05-06 13:33 63.05094 -131.72995 34872 ft 518 kts 96°
2026-05-06 13:34 63.04719 -131.57141 34864 ft 518 kts 96°
2026-05-06 13:34 63.04326 -131.41283 34878 ft 518 kts 96°
2026-05-06 13:35 63.03916 -131.25427 34876 ft 518 kts 96°
2026-05-06 13:35 63.03488 -131.09594 34876 ft 518 kts 96°
2026-05-06 13:36 63.03042 -130.93761 34883 ft 518 kts 96°
2026-05-06 13:36 63.02580 -130.77932 34882 ft 518 kts 97°
2026-05-06 13:37 63.02099 -130.62114 34875 ft 518 kts 97°
2026-05-06 13:37 63.01600 -130.46312 34889 ft 518 kts 97°
2026-05-06 13:38 63.01083 -130.30490 34877 ft 518 kts 97°
2026-05-06 13:38 63.00550 -130.14690 34898 ft 518 kts 97°
2026-05-06 13:39 63.00000 -129.98931 35357 ft 514 kts 97°
2026-05-06 13:39 62.99656 -129.91144 35736 ft 510 kts 99°
2026-05-06 13:39 62.99183 -129.83417 36003 ft 509 kts 101°
2026-05-06 13:39 62.98650 -129.75729 36209 ft 509 kts 102°
2026-05-06 13:40 62.98103 -129.68044 36438 ft 509 kts 101°
2026-05-06 13:40 62.97562 -129.60342 36657 ft 509 kts 101°
2026-05-06 13:40 62.97036 -129.52651 36824 ft 510 kts 101°
2026-05-06 13:41 62.95993 -129.37086 36880 ft 518 kts 101°
2026-05-06 13:41 62.94947 -129.21415 36884 ft 518 kts 101°
2026-05-06 13:42 62.93886 -129.05773 36879 ft 518 kts 101°
2026-05-06 13:42 62.92804 -128.90141 36875 ft 518 kts 101°
2026-05-06 13:43 62.91703 -128.74525 36876 ft 518 kts 101°
2026-05-06 13:43 62.90587 -128.58933 36861 ft 517 kts 102°
2026-05-06 13:44 62.89454 -128.43376 36857 ft 517 kts 102°
2026-05-06 13:44 62.88304 -128.27832 36853 ft 516 kts 102°
2026-05-06 13:45 62.87138 -128.12302 36851 ft 517 kts 102°
2026-05-06 13:45 62.85355 -127.89026 36848 ft 516 kts 102°
2026-05-06 13:46 62.84147 -127.73530 36837 ft 516 kts 102°
2026-05-06 13:46 62.82921 -127.58042 36843 ft 516 kts 102°
2026-05-06 13:47 62.81680 -127.42578 36839 ft 516 kts 103°
2026-05-06 13:47 62.80420 -127.27121 36815 ft 516 kts 103°
2026-05-06 13:48 62.79151 -127.11782 36817 ft 517 kts 103°
2026-05-06 13:48 62.77858 -126.96352 36803 ft 516 kts 103°
2026-05-06 13:49 62.76548 -126.80936 36801 ft 516 kts 103°
2026-05-06 13:49 62.75212 -126.65433 36800 ft 516 kts 103°
2026-05-06 13:50 62.73877 -126.50157 36769 ft 516 kts 103°
2026-05-06 13:50 62.72519 -126.34804 36774 ft 515 kts 103°
2026-05-06 13:51 62.71145 -126.19490 36770 ft 515 kts 104°
2026-05-06 13:51 62.69753 -126.04175 36754 ft 515 kts 104°
2026-05-06 13:52 62.68347 -125.88891 36752 ft 515 kts 104°
2026-05-06 13:52 62.66924 -125.73625 36746 ft 515 kts 104°
2026-05-06 13:53 62.65483 -125.58358 36732 ft 516 kts 104°
2026-05-06 13:53 62.64023 -125.43078 36718 ft 517 kts 104°
2026-05-06 13:54 62.62541 -125.27775 36735 ft 517 kts 104°
2026-05-06 13:54 62.61290 -125.14984 36720 ft 517 kts 104°
2026-05-06 13:55 62.59791 -124.99820 36719 ft 517 kts 104°
2026-05-06 13:55 62.58267 -124.84585 36722 ft 517 kts 104°
2026-05-06 13:56 62.56724 -124.69354 36674 ft 517 kts 105°
2026-05-06 13:56 62.55161 -124.54105 36696 ft 519 kts 105°
2026-05-06 13:57 62.53579 -124.38860 36697 ft 519 kts 105°
2026-05-06 13:57 62.51980 -124.23614 36685 ft 518 kts 105°
2026-05-06 13:58 62.50368 -124.08417 36685 ft 517 kts 105°
2026-05-06 13:58 62.48743 -123.93266 36674 ft 517 kts 105°
2026-05-06 13:59 62.47099 -123.78115 36676 ft 517 kts 105°
2026-05-06 13:59 62.45441 -123.62993 36677 ft 517 kts 105°
2026-05-06 14:00 62.43765 -123.47886 36698 ft 517 kts 106°
2026-05-06 14:00 62.42072 -123.32787 36697 ft 517 kts 106°
2026-05-06 14:01 62.40363 -123.17711 36697 ft 516 kts 106°
2026-05-06 14:01 62.38645 -123.02707 36702 ft 516 kts 106°
2026-05-06 14:02 62.36910 -122.87715 36701 ft 516 kts 106°
2026-05-06 14:02 62.35158 -122.72732 36700 ft 516 kts 106°
2026-05-06 14:03 62.33388 -122.57753 36705 ft 517 kts 107°
2026-05-06 14:03 62.31601 -122.42783 36729 ft 517 kts 107°
2026-05-06 14:04 62.29799 -122.27837 36713 ft 516 kts 107°
2026-05-06 14:04 62.27981 -122.12920 36711 ft 516 kts 107°
2026-05-06 14:05 62.26150 -121.98036 36714 ft 515 kts 107°
2026-05-06 14:05 62.24304 -121.83180 36718 ft 516 kts 107°
2026-05-06 14:06 62.22436 -121.68296 36730 ft 517 kts 107°
2026-05-06 14:06 62.20552 -121.53422 36724 ft 517 kts 107°
2026-05-06 14:07 62.18666 -121.38677 36726 ft 517 kts 108°
2026-05-06 14:07 62.16749 -121.23838 36732 ft 517 kts 108°
2026-05-06 14:08 62.14817 -121.09023 36726 ft 517 kts 108°
2026-05-06 14:08 62.12872 -120.94248 36720 ft 516 kts 108°
2026-05-06 14:09 62.10905 -120.79452 36741 ft 518 kts 108°
2026-05-06 14:09 62.08924 -120.64671 36742 ft 518 kts 108°
2026-05-06 14:10 62.06925 -120.49900 36761 ft 518 kts 108°
2026-05-06 14:10 62.04910 -120.35146 36759 ft 518 kts 108°
2026-05-06 14:11 62.02880 -120.20420 36774 ft 518 kts 108°
2026-05-06 14:11 62.00833 -120.05705 36761 ft 517 kts 108°
2026-05-06 14:12 61.98862 -119.90981 36786 ft 518 kts 105°
2026-05-06 14:12 61.97289 -119.76015 36798 ft 519 kts 103°
2026-05-06 14:13 61.95752 -119.61037 36802 ft 519 kts 104°
2026-05-06 14:13 61.94132 -119.46099 36801 ft 519 kts 104°
2026-05-06 14:14 61.92461 -119.31213 36813 ft 519 kts 104°
2026-05-06 14:14 61.90777 -119.16430 36818 ft 519 kts 105°
2026-05-06 14:15 61.89056 -119.01469 36804 ft 519 kts 104°
2026-05-06 14:15 61.87332 -118.86612 36834 ft 520 kts 105°
2026-05-06 14:16 61.85603 -118.71856 36834 ft 520 kts 105°
2026-05-06 14:16 61.83845 -118.57006 36816 ft 519 kts 105°
2026-05-06 14:17 61.82072 -118.42183 36830 ft 520 kts 105°
2026-05-06 14:17 61.80283 -118.27381 36831 ft 520 kts 105°
2026-05-06 14:18 61.78478 -118.12601 36846 ft 519 kts 105°
2026-05-06 14:18 61.76663 -117.97876 36847 ft 517 kts 105°
2026-05-06 14:19 61.74839 -117.83214 36842 ft 517 kts 105°
2026-05-06 14:19 61.72996 -117.68557 36853 ft 517 kts 105°
2026-05-06 14:20 61.71140 -117.53933 36851 ft 516 kts 105°
2026-05-06 14:20 61.69268 -117.39320 36865 ft 516 kts 106°
2026-05-06 14:21 61.67379 -117.24722 36866 ft 516 kts 106°
2026-05-06 14:21 61.65480 -117.10185 36870 ft 513 kts 105°
2026-05-06 14:22 61.63573 -116.95722 36885 ft 513 kts 105°
2026-05-06 14:22 61.61652 -116.81274 36887 ft 513 kts 106°
2026-05-06 14:23 61.59716 -116.66851 36890 ft 513 kts 106°
2026-05-06 14:23 61.57764 -116.52440 36902 ft 513 kts 106°
2026-05-06 14:24 61.55796 -116.38040 36885 ft 513 kts 106°
2026-05-06 14:24 61.53813 -116.23668 36908 ft 513 kts 106°
2026-05-06 14:25 61.51822 -116.09360 36921 ft 511 kts 106°
2026-05-06 14:25 61.49829 -115.95157 36924 ft 511 kts 106°
2026-05-06 14:26 61.47808 -115.80886 36933 ft 511 kts 106°
2026-05-06 14:26 61.45775 -115.66645 36932 ft 511 kts 107°
2026-05-06 14:27 61.43723 -115.52401 36951 ft 511 kts 107°
2026-05-06 14:27 61.41658 -115.38192 36932 ft 511 kts 107°
2026-05-06 14:28 61.39579 -115.24006 36940 ft 511 kts 107°
2026-05-06 14:28 61.37488 -115.09859 36966 ft 510 kts 107°
2026-05-06 14:29 61.35382 -114.95718 36964 ft 511 kts 107°
2026-05-06 14:29 61.33260 -114.81593 36963 ft 511 kts 107°
2026-05-06 14:30 61.31122 -114.67475 36954 ft 511 kts 107°
2026-05-06 14:30 61.28972 -114.53396 36954 ft 511 kts 107°
2026-05-06 14:31 61.26806 -114.39328 36982 ft 511 kts 107°
2026-05-06 14:31 61.24626 -114.25285 36976 ft 511 kts 107°
2026-05-06 14:32 61.22429 -114.11242 36980 ft 512 kts 107°
2026-05-06 14:32 61.20218 -113.97224 36988 ft 512 kts 107°
2026-05-06 14:33 61.17991 -113.83213 36981 ft 512 kts 107°
2026-05-06 14:33 61.15747 -113.69212 37021 ft 512 kts 107°
2026-05-06 14:34 61.13492 -113.55246 37024 ft 512 kts 107°
2026-05-06 14:34 61.11217 -113.41276 37021 ft 512 kts 107°
2026-05-06 14:35 61.08926 -113.27307 37039 ft 514 kts 107°
2026-05-06 14:35 61.06619 -113.13348 37040 ft 514 kts 107°
2026-05-06 14:36 61.04293 -112.99384 37046 ft 514 kts 107°
2026-05-06 14:36 61.01956 -112.85459 37050 ft 514 kts 107°
2026-05-06 14:37 60.99617 -112.71631 37048 ft 514 kts 107°
2026-05-06 14:37 60.97232 -112.57646 37081 ft 514 kts 107°
2026-05-06 14:38 60.94861 -112.43852 37068 ft 515 kts 107°
2026-05-06 14:38 60.92461 -112.29960 37066 ft 516 kts 107°
2026-05-06 14:39 60.90045 -112.16087 37080 ft 516 kts 107°
2026-05-06 14:39 60.87610 -112.02215 37081 ft 516 kts 107°
2026-05-06 14:40 60.85162 -111.88375 37092 ft 516 kts 107°
2026-05-06 14:40 60.82700 -111.74555 37090 ft 516 kts 107°
2026-05-06 14:41 60.80643 -111.63088 37094 ft 515 kts 107°
2026-05-06 14:41 60.78143 -111.49243 37107 ft 515 kts 107°
2026-05-06 14:42 60.75643 -111.35496 37109 ft 516 kts 107°
2026-05-06 14:42 60.73146 -111.21864 37109 ft 516 kts 107°
2026-05-06 14:43 60.70617 -111.08149 37114 ft 516 kts 107°
2026-05-06 14:43 60.68073 -110.94454 37121 ft 516 kts 107°
2026-05-06 14:44 60.65516 -110.80786 37161 ft 516 kts 107°
2026-05-06 14:45 60.61656 -110.60345 37130 ft 515 kts 107°
2026-05-06 14:45 60.59068 -110.46744 37130 ft 516 kts 107°
2026-05-06 14:46 60.56462 -110.33150 37132 ft 516 kts 107°
2026-05-06 14:46 60.53842 -110.19575 37133 ft 516 kts 107°